Wetterdaten: Dienstag, 14.11.2023
Datum Zeit Temp. Aussen Temp. o. S. Temp +5cm Feuchte Auss Luftdruck Regen Sonnenschein Regendauer Solar Windben Empfang
14.11.2023 00:00 10,9 C 10,0 C 7,2 C 89 % 1003,4 hPa 0,0 l/m 0 min 0 min 0 W/m 25,7 km/h (4 Bft) 93,62 %
14.11.2023 00:02 10,9 C 10,0 C 7,2 C 89 % 1003,3 hPa 0,0 l/m 0 min 0 min 0 W/m 19,3 km/h (3 Bft) 93,33 %
14.11.2023 00:04 10,9 C 10,0 C 7,2 C 89 % 1003,3 hPa 0,0 l/m 0 min 0 min 0 W/m 22,5 km/h (4 Bft) 90,48 %
14.11.2023 00:08 10,8 C 10,0 C 7,2 C 89 % 1003,4 hPa 0,0 l/m 0 min 0 min 0 W/m 25,7 km/h (4 Bft) 93,62 %
14.11.2023 00:10 10,8 C 10,0 C 7,2 C 89 % 1003,4 hPa 0,0 l/m 0 min 0 min 0 W/m 16,1 km/h (3 Bft) 95,74 %
14.11.2023 00:12 10,8 C 10,0 C 7,2 C 89 % 1003,5 hPa 0,0 l/m 0 min 0 min 0 W/m 22,5 km/h (4 Bft) 93,62 %
14.11.2023 00:16 10,8 C 10,0 C 7,2 C 89 % 1003,4 hPa 0,0 l/m 0 min 0 min 0 W/m 25,7 km/h (4 Bft) 95,70 %
14.11.2023 00:18 10,8 C 10,0 C 7,2 C 89 % 1003,4 hPa 0,0 l/m 0 min 0 min 0 W/m 19,3 km/h (3 Bft) 95,74 %
14.11.2023 00:20 10,8 C 10,0 C 7,2 C 89 % 1003,5 hPa 0,0 l/m 0 min 0 min 0 W/m 19,3 km/h (3 Bft) 95,74 %
14.11.2023 00:22 10,9 C 10,0 C 7,2 C 89 % 1003,5 hPa 0,0 l/m 0 min 0 min 0 W/m 12,9 km/h (3 Bft) 95,74 %
14.11.2023 00:24 10,9 C 10,0 C 7,2 C 89 % 1003,6 hPa 0,0 l/m 0 min 0 min 0 W/m 25,7 km/h (4 Bft) 95,74 %
14.11.2023 00:26 10,9 C 10,6 C 7,2 C 89 % 1003,6 hPa 0,0 l/m 0 min 0 min 0 W/m 29,0 km/h (5 Bft) 89,36 %
14.11.2023 00:28 11,0 C 10,6 C 7,2 C 89 % 1003,7 hPa 0,0 l/m 0 min 0 min 0 W/m 25,7 km/h (4 Bft) 93,62 %
14.11.2023 00:30 11,1 C 10,6 C 7,2 C 89 % 1003,7 hPa 0,0 l/m 0 min 0 min 0 W/m 19,3 km/h (3 Bft) 97,87 %
14.11.2023 00:32 11,0 C 10,6 C 7,2 C 89 % 1003,7 hPa 0,0 l/m 0 min 0 min 0 W/m 35,4 km/h (5 Bft) 93,62 %
14.11.2023 00:34 11,1 C 10,6 C 7,2 C 89 % 1003,6 hPa 0,0 l/m 0 min 0 min 0 W/m 22,5 km/h (4 Bft) 95,74 %
14.11.2023 00:36 11,1 C 10,6 C 7,2 C 89 % 1003,7 hPa 0,0 l/m 0 min 0 min 0 W/m 22,5 km/h (4 Bft) 93,48 %
14.11.2023 00:38 11,1 C 10,6 C 7,2 C 89 % 1003,6 hPa 0,0 l/m 0 min 0 min 0 W/m 22,5 km/h (4 Bft) 97,87 %
14.11.2023 00:40 11,1 C 10,6 C 7,2 C 88 % 1003,6 hPa 0,0 l/m 0 min 0 min 0 W/m 19,3 km/h (3 Bft) 95,74 %
14.11.2023 00:42 11,1 C 10,6 C 7,2 C 88 % 1003,5 hPa 0,0 l/m 0 min 0 min 0 W/m 29,0 km/h (5 Bft) 93,62 %
14.11.2023 00:44 11,1 C 10,6 C 7,2 C 88 % 1003,6 hPa 0,0 l/m 0 min 0 min 0 W/m 22,5 km/h (4 Bft) 97,87 %
14.11.2023 00:46 11,1 C 10,6 C 7,2 C 88 % 1003,5 hPa 0,0 l/m 0 min 0 min 0 W/m 22,5 km/h (4 Bft) 95,74 %
14.11.2023 00:48 11,1 C 10,6 C 7,2 C 88 % 1003,5 hPa 0,0 l/m 0 min 0 min 0 W/m 19,3 km/h (3 Bft) 97,87 %
14.11.2023 00:50 11,1 C 10,6 C 7,2 C 88 % 1003,4 hPa 0,0 l/m 0 min 0 min 0 W/m 25,7 km/h (4 Bft) 95,74 %
14.11.2023 00:52 11,1 C 10,6 C 7,2 C 88 % 1003,5 hPa 0,0 l/m 0 min 0 min 0 W/m 16,1 km/h (3 Bft) 97,87 %
14.11.2023 00:54 11,1 C 10,0 C 7,2 C 88 % 1003,4 hPa 0,0 l/m 0 min 0 min 0 W/m 32,2 km/h (5 Bft) 95,74 %
14.11.2023 00:56 11,1 C 10,0 C 7,2 C 88 % 1003,4 hPa 0,0 l/m 0 min 0 min 0 W/m 19,3 km/h (3 Bft) 97,83 %
14.11.2023 00:58 11,1 C 10,6 C 7,2 C 88 % 1003,4 hPa 0,0 l/m 0 min 0 min 0 W/m 35,4 km/h (5 Bft) 95,74 %
14.11.2023 01:00 11,1 C 10,0 C 7,2 C 89 % 1003,4 hPa 0,0 l/m 0 min 0 min 0 W/m 12,9 km/h (3 Bft) 97,87 %
14.11.2023 01:02 11,0 C 10,0 C 7,2 C 89 % 1003,3 hPa 0,0 l/m 0 min 0 min 0 W/m 16,1 km/h (3 Bft) 97,87 %
14.11.2023 01:04 11,0 C 10,0 C 7,2 C 89 % 1003,3 hPa 0,0 l/m 0 min 0 min 0 W/m 16,1 km/h (3 Bft) 97,92 %
14.11.2023 01:08 11,0 C 10,0 C 7,2 C 89 % 1003,2 hPa 0,0 l/m 0 min 0 min 0 W/m 35,4 km/h (5 Bft) 100,00 %
14.11.2023 01:09 11,0 C 10,6 C 7,2 C 89 % 1003,3 hPa 0,0 l/m 0 min 0 min 0 W/m 22,5 km/h (4 Bft) 95,65 %
14.11.2023 01:10 11,0 C 10,6 C 7,2 C 89 % 1003,3 hPa 0,0 l/m 0 min 0 min 0 W/m 35,4 km/h (5 Bft) 100,00 %
14.11.2023 01:14 11,0 C 10,0 C 7,2 C 89 % 1003,5 hPa 0,0 l/m 0 min 0 min 0 W/m 29,0 km/h (5 Bft) 100,00 %
14.11.2023 01:16 10,9 C 10,0 C 7,2 C 89 % 1003,3 hPa 0,0 l/m 0 min 0 min 0 W/m 35,4 km/h (5 Bft) 100,00 %
14.11.2023 01:18 11,0 C 10,0 C 7,2 C 89 % 1003,3 hPa 0,0 l/m 0 min 0 min 0 W/m 19,3 km/h (3 Bft) 100,00 %
14.11.2023 01:20 10,9 C 10,0 C 7,2 C 89 % 1003,4 hPa 0,0 l/m 0 min 0 min 0 W/m 25,7 km/h (4 Bft) 100,00 %
14.11.2023 01:22 10,9 C 10,0 C 7,2 C 89 % 1003,4 hPa 0,0 l/m 0 min 0 min 0 W/m 29,0 km/h (5 Bft) 97,87 %
14.11.2023 01:24 11,0 C 10,0 C 7,2 C 89 % 1003,2 hPa 0,0 l/m 0 min 0 min 0 W/m 16,1 km/h (3 Bft) 93,62 %
14.11.2023 01:26 11,0 C 10,6 C 7,2 C 89 % 1003,3 hPa 0,0 l/m 0 min 0 min 0 W/m 19,3 km/h (3 Bft) 100,00 %
14.11.2023 01:28 11,0 C 10,6 C 7,2 C 89 % 1003,4 hPa 0,0 l/m 0 min 0 min 0 W/m 32,2 km/h (5 Bft) 100,00 %
14.11.2023 01:30 11,0 C 10,6 C 7,2 C 89 % 1003,5 hPa 0,0 l/m 0 min 0 min 0 W/m 19,3 km/h (3 Bft) 100,00 %
14.11.2023 01:32 11,0 C 10,6 C 7,2 C 89 % 1003,4 hPa 0,0 l/m 0 min 0 min 0 W/m 12,9 km/h (3 Bft) 100,00 %
14.11.2023 01:34 11,0 C 10,6 C 7,2 C 89 % 1003,6 hPa 0,0 l/m 0 min 0 min 0 W/m 19,3 km/h (3 Bft) 100,00 %
14.11.2023 01:36 11,0 C 10,6 C 7,2 C 89 % 1003,5 hPa 0,0 l/m 0 min 0 min 0 W/m 25,7 km/h (4 Bft) 97,87 %
14.11.2023 01:38 11,1 C 10,6 C 7,2 C 89 % 1003,6 hPa 0,0 l/m 0 min 0 min 0 W/m 48,3 km/h (6 Bft) 100,00 %
14.11.2023 01:40 11,1 C 10,6 C 7,2 C 89 % 1003,5 hPa 0,0 l/m 0 min 0 min 0 W/m 38,6 km/h (5 Bft) 97,87 %
14.11.2023 01:42 11,1 C 10,6 C 7,2 C 89 % 1003,5 hPa 0,0 l/m 0 min 0 min 0 W/m 22,5 km/h (4 Bft) 100,00 %
14.11.2023 01:44 11,2 C 10,6 C 7,2 C 88 % 1003,5 hPa 0,0 l/m 0 min 0 min 0 W/m 19,3 km/h (3 Bft) 100,00 %
14.11.2023 01:46 11,1 C 10,6 C 7,2 C 88 % 1003,5 hPa 0,0 l/m 0 min 0 min 0 W/m 22,5 km/h (4 Bft) 100,00 %
14.11.2023 01:48 11,1 C 10,6 C 7,2 C 88 % 1003,4 hPa 0,0 l/m 0 min 0 min 0 W/m 19,3 km/h (3 Bft) 100,00 %
14.11.2023 01:50 11,2 C 10,6 C 7,2 C 88 % 1003,5 hPa 0,0 l/m 0 min 0 min 0 W/m 29,0 km/h (5 Bft) 100,00 %
14.11.2023 01:52 11,2 C 10,6 C 7,2 C 88 % 1003,6 hPa 0,0 l/m 0 min 0 min 0 W/m 25,7 km/h (4 Bft) 100,00 %
14.11.2023 01:54 11,2 C 10,6 C 7,2 C 88 % 1003,6 hPa 0,0 l/m 0 min 0 min 0 W/m 35,4 km/h (5 Bft) 100,00 %
14.11.2023 01:56 11,3 C 10,6 C 7,2 C 88 % 1003,5 hPa 0,0 l/m 0 min 0 min 0 W/m 22,5 km/h (4 Bft) 100,00 %
14.11.2023 01:58 11,3 C 10,6 C 7,2 C 88 % 1003,6 hPa 0,0 l/m 0 min 0 min 0 W/m 19,3 km/h (3 Bft) 100,00 %
14.11.2023 02:00 11,3 C 10,6 C 7,2 C 88 % 1003,5 hPa 0,0 l/m 0 min 0 min 0 W/m 22,5 km/h (4 Bft) 97,87 %
14.11.2023 02:02 11,3 C 10,6 C 7,2 C 88 % 1003,6 hPa 0,0 l/m 0 min 0 min 0 W/m 22,5 km/h (4 Bft) 100,00 %
14.11.2023 02:04 11,3 C 10,6 C 7,2 C 88 % 1003,7 hPa 0,0 l/m 0 min 0 min 0 W/m 32,2 km/h (5 Bft) 100,00 %
14.11.2023 02:06 11,3 C 10,6 C 7,2 C 88 % 1003,7 hPa 0,0 l/m 0 min 0 min 0 W/m 41,8 km/h (6 Bft) 100,00 %
14.11.2023 02:08 11,3 C 10,6 C 7,2 C 88 % 1003,7 hPa 0,0 l/m 0 min 0 min 0 W/m 29,0 km/h (5 Bft) 100,00 %
14.11.2023 02:10 11,3 C 10,6 C 7,2 C 88 % 1003,5 hPa 0,0 l/m 0 min 0 min 0 W/m 25,7 km/h (4 Bft) 100,00 %
14.11.2023 02:17 11,3 C 10,6 C 7,2 C 88 % 1003,6 hPa 0,0 l/m 0 min 0 min 0 W/m 22,5 km/h (4 Bft) 97,96 %
14.11.2023 02:18 11,3 C 10,6 C 7,2 C 88 % 1003,6 hPa 0,0 l/m 0 min 0 min 0 W/m 29,0 km/h (5 Bft) 100,00 %
14.11.2023 02:20 11,3 C 10,6 C 7,2 C 88 % 1003,6 hPa 0,0 l/m 0 min 0 min 0 W/m 29,0 km/h (5 Bft) 97,87 %
14.11.2023 02:22 11,3 C 10,6 C 7,2 C 88 % 1003,5 hPa 0,0 l/m 0 min 0 min 0 W/m 25,7 km/h (4 Bft) 97,83 %
14.11.2023 02:24 11,3 C 10,6 C 7,2 C 88 % 1003,6 hPa 0,0 l/m 0 min 0 min 0 W/m 38,6 km/h (5 Bft) 100,00 %
14.11.2023 02:26 11,3 C 10,6 C 7,2 C 88 % 1003,6 hPa 0,0 l/m 0 min 0 min 0 W/m 29,0 km/h (5 Bft) 97,87 %
14.11.2023 02:28 11,3 C 10,6 C 7,2 C 88 % 1003,5 hPa 0,0 l/m 0 min 0 min 0 W/m 19,3 km/h (3 Bft) 97,87 %
14.11.2023 02:30 11,3 C 10,6 C 7,2 C 88 % 1003,5 hPa 0,0 l/m 0 min 0 min 0 W/m 25,7 km/h (4 Bft) 95,74 %
14.11.2023 02:32 11,3 C 10,6 C 7,2 C 88 % 1003,6 hPa 0,0 l/m 0 min 0 min 0 W/m 19,3 km/h (3 Bft) 93,62 %
14.11.2023 02:34 11,3 C 10,6 C 7,2 C 88 % 1003,6 hPa 0,0 l/m 0 min 0 min 0 W/m 25,7 km/h (4 Bft) 91,30 %
14.11.2023 02:36 11,3 C 10,6 C 7,2 C 88 % 1003,6 hPa 0,0 l/m 0 min 0 min 0 W/m 22,5 km/h (4 Bft) 91,49 %
14.11.2023 02:38 11,3 C 10,6 C 7,2 C 88 % 1003,5 hPa 0,0 l/m 0 min 0 min 0 W/m 25,7 km/h (4 Bft) 95,65 %
14.11.2023 02:40 11,3 C 10,6 C 7,2 C 88 % 1003,7 hPa 0,0 l/m 0 min 0 min 0 W/m 25,7 km/h (4 Bft) 95,74 %
14.11.2023 02:42 11,3 C 10,6 C 7,2 C 88 % 1003,6 hPa 0,0 l/m 0 min 0 min 0 W/m 25,7 km/h (4 Bft) 93,62 %
14.11.2023 02:44 11,3 C 10,6 C 7,2 C 88 % 1003,5 hPa 0,0 l/m 0 min 0 min 0 W/m 25,7 km/h (4 Bft) 93,48 %
14.11.2023 02:46 11,3 C 10,6 C 7,2 C 88 % 1003,6 hPa 0,0 l/m 0 min 2 min 0 W/m 38,6 km/h (5 Bft) 89,36 %
14.11.2023 02:48 11,3 C 10,6 C 7,2 C 88 % 1003,6 hPa 0,0 l/m 0 min 0 min 0 W/m 29,0 km/h (5 Bft) 93,62 %
14.11.2023 02:50 11,3 C 10,6 C 7,2 C 88 % 1003,6 hPa 0,0 l/m 0 min 0 min 0 W/m 22,5 km/h (4 Bft) 91,49 %
14.11.2023 02:52 11,2 C 10,6 C 7,2 C 88 % 1003,6 hPa 0,0 l/m 0 min 0 min 0 W/m 29,0 km/h (5 Bft) 91,49 %
14.11.2023 02:54 11,2 C 10,6 C 7,2 C 88 % 1003,7 hPa 0,0 l/m 0 min 0 min 0 W/m 38,6 km/h (5 Bft) 93,62 %
14.11.2023 02:56 11,2 C 10,6 C 7,2 C 88 % 1003,7 hPa 0,0 l/m 0 min 0 min 0 W/m 48,3 km/h (6 Bft) 93,48 %
14.11.2023 02:58 11,2 C 10,6 C 7,2 C 88 % 1003,8 hPa 0,0 l/m 0 min 0 min 0 W/m 29,0 km/h (5 Bft) 93,62 %
14.11.2023 03:00 11,2 C 10,6 C 7,2 C 88 % 1003,8 hPa 0,0 l/m 0 min 0 min 0 W/m 25,7 km/h (4 Bft) 95,74 %
14.11.2023 03:02 11,2 C 10,6 C 7,2 C 88 % 1003,8 hPa 0,0 l/m 0 min 0 min 0 W/m 22,5 km/h (4 Bft) 93,62 %
14.11.2023 03:04 11,2 C 10,6 C 7,2 C 88 % 1003,8 hPa 0,0 l/m 0 min 0 min 0 W/m 35,4 km/h (5 Bft) 94,23 %
14.11.2023 03:06 11,2 C 10,6 C 7,2 C 88 % 1003,8 hPa 0,0 l/m 0 min 0 min 0 W/m 25,7 km/h (4 Bft) 93,62 %
14.11.2023 03:08 11,2 C 10,6 C 7,2 C 88 % 1003,9 hPa 0,0 l/m 0 min 0 min 0 W/m 22,5 km/h (4 Bft) 95,74 %
14.11.2023 03:10 11,2 C 10,6 C 7,2 C 88 % 1003,8 hPa 0,0 l/m 0 min 0 min 0 W/m 22,5 km/h (4 Bft) 95,65 %
14.11.2023 03:12 11,2 C 10,6 C 7,2 C 88 % 1003,9 hPa 0,0 l/m 0 min 0 min 0 W/m 25,7 km/h (4 Bft) 95,74 %
14.11.2023 03:14 11,2 C 10,6 C 7,2 C 88 % 1003,9 hPa 0,0 l/m 0 min 0 min 0 W/m 38,6 km/h (5 Bft) 97,87 %
14.11.2023 03:16 11,2 C 10,6 C 7,2 C 88 % 1004,0 hPa 0,0 l/m 0 min 0 min 0 W/m 29,0 km/h (5 Bft) 95,92 %
14.11.2023 03:18 11,2 C 10,6 C 7,2 C 88 % 1003,8 hPa 0,0 l/m 0 min 0 min 0 W/m 29,0 km/h (5 Bft) 100,00 %
14.11.2023 03:20 11,2 C 10,6 C 7,2 C 88 % 1003,8 hPa 0,0 l/m 0 min 0 min 0 W/m 19,3 km/h (3 Bft) 95,74 %
14.11.2023 03:22 11,2 C 10,6 C 7,2 C 88 % 1003,8 hPa 0,0 l/m 0 min 0 min 0 W/m 38,6 km/h (5 Bft) 100,00 %
14.11.2023 03:24 11,2 C 10,6 C 7,2 C 88 % 1003,9 hPa 0,0 l/m 0 min 0 min 0 W/m 22,5 km/h (4 Bft) 97,87 %
14.11.2023 03:26 11,2 C 10,6 C 7,2 C 88 % 1004,0 hPa 0,0 l/m 0 min 0 min 0 W/m 32,2 km/h (5 Bft) 100,00 %
14.11.2023 03:28 11,2 C 10,6 C 7,2 C 88 % 1003,9 hPa 0,0 l/m 0 min 0 min 0 W/m 29,0 km/h (5 Bft) 100,00 %
14.11.2023 03:30 11,2 C 10,6 C 7,2 C 88 % 1004,0 hPa 0,0 l/m 0 min 0 min 0 W/m 29,0 km/h (5 Bft) 100,00 %
14.11.2023 03:32 11,2 C 10,6 C 7,2 C 88 % 1004,1 hPa 0,0 l/m 0 min 0 min 0 W/m 35,4 km/h (5 Bft) 97,87 %
14.11.2023 03:34 11,3 C 10,6 C 7,2 C 88 % 1004,2 hPa 0,0 l/m 0 min 0 min 0 W/m 45,1 km/h (6 Bft) 97,87 %
14.11.2023 03:36 11,3 C 10,6 C 7,2 C 88 % 1004,1 hPa 0,0 l/m 0 min 0 min 0 W/m 22,5 km/h (4 Bft) 100,00 %
14.11.2023 03:38 11,3 C 10,6 C 7,2 C 88 % 1004,1 hPa 0,0 l/m 0 min 0 min 0 W/m 22,5 km/h (4 Bft) 100,00 %
14.11.2023 03:40 11,3 C 10,6 C 7,2 C 88 % 1004,2 hPa 0,0 l/m 0 min 0 min 0 W/m 38,6 km/h (5 Bft) 100,00 %
14.11.2023 03:42 11,3 C 10,6 C 7,2 C 88 % 1004,2 hPa 0,0 l/m 0 min 0 min 0 W/m 19,3 km/h (3 Bft) 100,00 %
14.11.2023 03:44 11,3 C 10,6 C 7,2 C 88 % 1004,2 hPa 0,0 l/m 0 min 0 min 0 W/m 38,6 km/h (5 Bft) 97,83 %
14.11.2023 03:46 11,3 C 10,6 C 7,2 C 88 % 1004,2 hPa 0,0 l/m 0 min 0 min 0 W/m 35,4 km/h (5 Bft) 100,00 %
14.11.2023 03:48 11,3 C 10,6 C 7,2 C 88 % 1004,2 hPa 0,0 l/m 0 min 0 min 0 W/m 22,5 km/h (4 Bft) 100,00 %
14.11.2023 03:50 11,3 C 10,6 C 7,2 C 88 % 1004,2 hPa 0,0 l/m 0 min 0 min 0 W/m 41,8 km/h (6 Bft) 100,00 %
14.11.2023 03:52 11,3 C 10,6 C 7,2 C 88 % 1004,2 hPa 0,0 l/m 0 min 0 min 0 W/m 29,0 km/h (5 Bft) 100,00 %
14.11.2023 03:54 11,3 C 10,6 C 7,2 C 88 % 1004,2 hPa 0,0 l/m 0 min 0 min 0 W/m 35,4 km/h (5 Bft) 100,00 %
14.11.2023 03:56 11,3 C 10,6 C 7,2 C 88 % 1004,3 hPa 0,0 l/m 0 min 0 min 0 W/m 25,7 km/h (4 Bft) 100,00 %
14.11.2023 03:58 11,3 C 10,6 C 7,2 C 88 % 1004,3 hPa 0,0 l/m 0 min 0 min 0 W/m 35,4 km/h (5 Bft) 100,00 %
14.11.2023 04:00 11,3 C 10,6 C 7,2 C 88 % 1004,3 hPa 0,0 l/m 0 min 0 min 0 W/m 22,5 km/h (4 Bft) 100,00 %
14.11.2023 04:02 11,2 C 10,6 C 7,2 C 88 % 1004,3 hPa 0,0 l/m 0 min 0 min 0 W/m 41,8 km/h (6 Bft) 100,00 %
14.11.2023 04:04 11,2 C 10,6 C 7,2 C 88 % 1004,3 hPa 0,0 l/m 0 min 2 min 0 W/m 41,8 km/h (6 Bft) 100,00 %
14.11.2023 04:10 11,1 C 10,0 C 6,7 C 88 % 1004,3 hPa 0,0 l/m 0 min 5 min 0 W/m 35,4 km/h (5 Bft) 98,48 %
14.11.2023 04:12 11,1 C 10,0 C 6,7 C 88 % 1004,4 hPa 0,0 l/m 0 min 2 min 0 W/m 25,7 km/h (4 Bft) 97,87 %
14.11.2023 04:14 11,1 C 10,0 C 6,7 C 88 % 1004,2 hPa 0,0 l/m 0 min 2 min 0 W/m 29,0 km/h (5 Bft) 97,87 %
14.11.2023 04:16 11,1 C 10,0 C 6,7 C 88 % 1004,2 hPa 0,0 l/m 0 min 0 min 0 W/m 22,5 km/h (4 Bft) 100,00 %
14.11.2023 04:18 11,1 C 10,0 C 6,7 C 89 % 1004,3 hPa 0,0 l/m 0 min 2 min 0 W/m 25,7 km/h (4 Bft) 100,00 %
14.11.2023 04:20 11,1 C 10,6 C 6,7 C 89 % 1004,3 hPa 0,0 l/m 0 min 2 min 0 W/m 25,7 km/h (4 Bft) 100,00 %
14.11.2023 04:22 11,1 C 10,6 C 6,7 C 89 % 1004,3 hPa 0,0 l/m 0 min 2 min 0 W/m 29,0 km/h (5 Bft) 97,87 %
14.11.2023 04:24 11,1 C 10,6 C 6,7 C 88 % 1004,3 hPa 0,0 l/m 0 min 0 min 0 W/m 25,7 km/h (4 Bft) 97,87 %
14.11.2023 04:26 11,1 C 10,6 C 7,2 C 88 % 1004,3 hPa 0,0 l/m 0 min 0 min 0 W/m 32,2 km/h (5 Bft) 97,87 %
14.11.2023 04:28 11,1 C 10,6 C 7,2 C 88 % 1004,3 hPa 0,0 l/m 0 min 0 min 0 W/m 25,7 km/h (4 Bft) 97,87 %
14.11.2023 04:30 11,1 C 10,0 C 7,2 C 88 % 1004,3 hPa 0,0 l/m 0 min 0 min 0 W/m 29,0 km/h (5 Bft) 95,74 %
14.11.2023 04:32 11,1 C 10,0 C 6,7 C 88 % 1004,3 hPa 0,0 l/m 0 min 0 min 0 W/m 22,5 km/h (4 Bft) 97,87 %
14.11.2023 04:34 11,1 C 10,0 C 6,7 C 88 % 1004,4 hPa 0,0 l/m 0 min 0 min 0 W/m 38,6 km/h (5 Bft) 97,87 %
14.11.2023 04:36 11,1 C 10,0 C 6,7 C 88 % 1004,3 hPa 0,0 l/m 0 min 0 min 0 W/m 22,5 km/h (4 Bft) 97,87 %
14.11.2023 04:38 11,0 C 10,0 C 6,7 C 89 % 1004,3 hPa 0,0 l/m 0 min 0 min 0 W/m 25,7 km/h (4 Bft) 97,83 %
14.11.2023 04:40 11,0 C 10,0 C 6,7 C 89 % 1004,4 hPa 0,0 l/m 0 min 0 min 0 W/m 25,7 km/h (4 Bft) 97,87 %
14.11.2023 04:42 11,0 C 10,0 C 6,7 C 89 % 1004,3 hPa 0,0 l/m 0 min 0 min 0 W/m 19,3 km/h (3 Bft) 95,74 %
14.11.2023 04:44 10,9 C 10,0 C 6,7 C 89 % 1004,4 hPa 0,0 l/m 0 min 0 min 0 W/m 48,3 km/h (6 Bft) 95,74 %
14.11.2023 04:46 10,9 C 10,0 C 6,7 C 89 % 1004,3 hPa 0,0 l/m 0 min 0 min 0 W/m 29,0 km/h (5 Bft) 97,87 %
14.11.2023 04:48 11,0 C 10,0 C 6,7 C 89 % 1004,4 hPa 0,0 l/m 0 min 0 min 0 W/m 25,7 km/h (4 Bft) 97,87 %
14.11.2023 04:50 11,0 C 10,6 C 7,2 C 89 % 1004,5 hPa 0,0 l/m 0 min 0 min 0 W/m 29,0 km/h (5 Bft) 97,87 %
14.11.2023 04:52 11,1 C 10,6 C 7,2 C 89 % 1004,5 hPa 0,0 l/m 0 min 0 min 0 W/m 29,0 km/h (5 Bft) 97,87 %
14.11.2023 04:54 11,1 C 10,6 C 7,2 C 89 % 1004,4 hPa 0,0 l/m 0 min 0 min 0 W/m 29,0 km/h (5 Bft) 97,87 %
14.11.2023 04:56 11,1 C 10,0 C 7,2 C 89 % 1004,5 hPa 0,0 l/m 0 min 0 min 0 W/m 29,0 km/h (5 Bft) 98,00 %
14.11.2023 04:58 11,1 C 10,6 C 7,2 C 89 % 1004,5 hPa 0,0 l/m 0 min 0 min 0 W/m 25,7 km/h (4 Bft) 100,00 %
14.11.2023 05:00 11,1 C 10,0 C 6,7 C 89 % 1004,5 hPa 0,0 l/m 0 min 0 min 0 W/m 25,7 km/h (4 Bft) 95,74 %
14.11.2023 05:02 11,0 C 10,0 C 7,2 C 89 % 1004,5 hPa 0,0 l/m 0 min 0 min 0 W/m 25,7 km/h (4 Bft) 97,87 %
14.11.2023 05:04 11,0 C 10,0 C 7,2 C 89 % 1004,6 hPa 0,0 l/m 0 min 0 min 0 W/m 25,7 km/h (4 Bft) 97,92 %
14.11.2023 05:10 11,1 C 10,6 C 7,2 C 89 % 1004,6 hPa 0,0 l/m 0 min 0 min 0 W/m 22,5 km/h (4 Bft) 97,74 %
14.11.2023 05:12 11,1 C 10,6 C 7,2 C 89 % 1004,7 hPa 0,0 l/m 0 min 0 min 0 W/m 22,5 km/h (4 Bft) 97,87 %
14.11.2023 05:14 11,1 C 10,6 C 7,2 C 89 % 1004,6 hPa 0,0 l/m 0 min 0 min 0 W/m 22,5 km/h (4 Bft) 97,87 %
14.11.2023 05:16 11,1 C 10,6 C 7,2 C 89 % 1004,6 hPa 0,0 l/m 0 min 0 min 0 W/m 19,3 km/h (3 Bft) 97,87 %
14.11.2023 05:18 11,1 C 10,6 C 7,2 C 89 % 1004,7 hPa 0,0 l/m 0 min 0 min 0 W/m 22,5 km/h (4 Bft) 97,87 %
14.11.2023 05:20 11,1 C 10,6 C 7,2 C 89 % 1004,6 hPa 0,0 l/m 0 min 0 min 0 W/m 29,0 km/h (5 Bft) 95,74 %
14.11.2023 05:22 11,1 C 10,6 C 7,2 C 89 % 1004,5 hPa 0,0 l/m 0 min 0 min 0 W/m 19,3 km/h (3 Bft) 95,74 %
14.11.2023 05:24 11,1 C 10,6 C 7,2 C 89 % 1004,6 hPa 0,0 l/m 0 min 0 min 0 W/m 22,5 km/h (4 Bft) 93,48 %
14.11.2023 05:26 11,1 C 10,6 C 7,2 C 89 % 1004,4 hPa 0,0 l/m 0 min 0 min 0 W/m 25,7 km/h (4 Bft) 93,62 %
14.11.2023 05:28 11,1 C 10,6 C 7,2 C 89 % 1004,5 hPa 0,0 l/m 0 min 0 min 0 W/m 25,7 km/h (4 Bft) 95,74 %
14.11.2023 05:30 11,1 C 10,0 C 7,2 C 89 % 1004,5 hPa 0,0 l/m 0 min 0 min 0 W/m 12,9 km/h (3 Bft) 93,62 %
14.11.2023 05:32 11,1 C 10,0 C 6,7 C 89 % 1004,5 hPa 0,0 l/m 0 min 0 min 0 W/m 25,7 km/h (4 Bft) 95,74 %
14.11.2023 05:34 11,1 C 10,6 C 6,7 C 89 % 1004,5 hPa 0,0 l/m 0 min 0 min 0 W/m 22,5 km/h (4 Bft) 95,74 %
14.11.2023 05:36 11,1 C 10,0 C 6,7 C 89 % 1004,5 hPa 0,0 l/m 0 min 0 min 0 W/m 25,7 km/h (4 Bft) 95,74 %
14.11.2023 05:38 11,0 C 10,0 C 6,7 C 89 % 1004,5 hPa 0,0 l/m 0 min 0 min 0 W/m 19,3 km/h (3 Bft) 93,62 %
14.11.2023 05:40 11,0 C 10,0 C 7,2 C 89 % 1004,5 hPa 0,0 l/m 0 min 0 min 0 W/m 22,5 km/h (4 Bft) 95,74 %
14.11.2023 05:42 11,0 C 10,0 C 7,2 C 89 % 1004,4 hPa 0,0 l/m 0 min 0 min 0 W/m 22,5 km/h (4 Bft) 95,74 %
14.11.2023 05:44 11,0 C 10,0 C 7,2 C 89 % 1004,4 hPa 0,0 l/m 0 min 0 min 0 W/m 25,7 km/h (4 Bft) 91,30 %
14.11.2023 05:46 11,0 C 10,0 C 6,7 C 89 % 1004,4 hPa 0,0 l/m 0 min 0 min 0 W/m 22,5 km/h (4 Bft) 95,74 %
14.11.2023 05:48 11,0 C 10,6 C 7,2 C 89 % 1004,5 hPa 0,0 l/m 0 min 0 min 0 W/m 35,4 km/h (5 Bft) 97,87 %
14.11.2023 05:50 11,0 C 10,6 C 7,2 C 89 % 1004,5 hPa 0,0 l/m 0 min 0 min 0 W/m 29,0 km/h (5 Bft) 97,87 %
14.11.2023 05:52 11,0 C 10,6 C 7,2 C 89 % 1004,5 hPa 0,0 l/m 0 min 0 min 0 W/m 19,3 km/h (3 Bft) 97,87 %
14.11.2023 05:54 11,1 C 10,0 C 7,2 C 89 % 1004,4 hPa 0,0 l/m 0 min 2 min 0 W/m 19,3 km/h (3 Bft) 95,74 %
14.11.2023 05:56 11,1 C 10,6 C 6,7 C 89 % 1004,4 hPa 0,0 l/m 0 min 0 min 0 W/m 25,7 km/h (4 Bft) 95,74 %
14.11.2023 05:58 11,1 C 10,6 C 6,7 C 89 % 1004,5 hPa 0,0 l/m 0 min 0 min 0 W/m 41,8 km/h (6 Bft) 97,87 %
14.11.2023 06:00 11,1 C 10,6 C 6,7 C 89 % 1004,5 hPa 0,0 l/m 0 min 0 min 0 W/m 22,5 km/h (4 Bft) 95,74 %
14.11.2023 06:02 11,1 C 10,6 C 6,7 C 89 % 1004,5 hPa 0,0 l/m 0 min 0 min 0 W/m 35,4 km/h (5 Bft) 91,49 %
14.11.2023 06:04 11,1 C 10,6 C 6,7 C 89 % 1004,4 hPa 0,0 l/m 0 min 0 min 0 W/m 32,2 km/h (5 Bft) 97,87 %
14.11.2023 06:08 11,1 C 10,6 C 7,2 C 89 % 1004,3 hPa 0,0 l/m 0 min 0 min 0 W/m 35,4 km/h (5 Bft) 97,98 %
14.11.2023 06:10 11,1 C 10,6 C 7,2 C 89 % 1004,4 hPa 0,0 l/m 0 min 0 min 0 W/m 19,3 km/h (3 Bft) 97,87 %
14.11.2023 06:12 11,1 C 10,6 C 7,2 C 89 % 1004,4 hPa 0,0 l/m 0 min 0 min 0 W/m 29,0 km/h (5 Bft) 97,87 %
14.11.2023 06:16 11,1 C 10,6 C 7,2 C 89 % 1004,5 hPa 0,0 l/m 0 min 0 min 0 W/m 38,6 km/h (5 Bft) 97,87 %
14.11.2023 06:18 11,2 C 10,6 C 7,2 C 89 % 1004,5 hPa 0,0 l/m 0 min 0 min 0 W/m 22,5 km/h (4 Bft) 97,87 %
14.11.2023 06:20 11,2 C 10,6 C 7,2 C 89 % 1004,5 hPa 0,0 l/m 0 min 0 min 0 W/m 38,6 km/h (5 Bft) 95,74 %
14.11.2023 06:22 11,2 C 10,6 C 7,2 C 89 % 1004,5 hPa 0,0 l/m 0 min 0 min 0 W/m 35,4 km/h (5 Bft) 97,14 %
14.11.2023 06:24 11,2 C 10,6 C 7,2 C 89 % 1004,5 hPa 0,0 l/m 0 min 0 min 0 W/m 22,5 km/h (4 Bft) 96,61 %
14.11.2023 06:26 11,2 C 10,6 C 7,2 C 89 % 1004,6 hPa 0,0 l/m 0 min 0 min 0 W/m 25,7 km/h (4 Bft) 97,14 %
14.11.2023 06:28 11,2 C 10,6 C 7,2 C 89 % 1004,6 hPa 0,0 l/m 0 min 0 min 0 W/m 25,7 km/h (4 Bft) 97,87 %
14.11.2023 06:30 11,2 C 10,6 C 7,2 C 89 % 1004,6 hPa 0,0 l/m 0 min 0 min 0 W/m 22,5 km/h (4 Bft) 95,74 %
14.11.2023 06:32 11,2 C 10,6 C 7,2 C 89 % 1004,8 hPa 0,0 l/m 0 min 0 min 0 W/m 35,4 km/h (5 Bft) 93,48 %
14.11.2023 06:34 11,2 C 10,6 C 7,2 C 89 % 1004,7 hPa 0,0 l/m 0 min 0 min 0 W/m 22,5 km/h (4 Bft) 97,87 %
14.11.2023 06:36 11,2 C 10,6 C 7,2 C 89 % 1004,7 hPa 0,0 l/m 0 min 0 min 0 W/m 29,0 km/h (5 Bft) 97,87 %
14.11.2023 06:38 11,2 C 10,6 C 7,2 C 89 % 1004,8 hPa 0,0 l/m 0 min 0 min 0 W/m 29,0 km/h (5 Bft) 95,74 %
14.11.2023 06:40 11,2 C 10,6 C 7,2 C 89 % 1004,8 hPa 0,0 l/m 0 min 0 min 0 W/m 32,2 km/h (5 Bft) 97,87 %
14.11.2023 06:42 11,2 C 10,6 C 7,2 C 89 % 1004,8 hPa 0,0 l/m 0 min 0 min 0 W/m 19,3 km/h (3 Bft) 97,87 %
14.11.2023 06:44 11,2 C 10,6 C 7,2 C 89 % 1005,0 hPa 0,0 l/m 0 min 0 min 0 W/m 35,4 km/h (5 Bft) 95,74 %
14.11.2023 06:46 11,2 C 10,6 C 7,2 C 89 % 1004,9 hPa 0,0 l/m 0 min 0 min 0 W/m 22,5 km/h (4 Bft) 97,87 %
14.11.2023 06:48 11,1 C 10,6 C 7,2 C 89 % 1004,9 hPa 0,0 l/m 0 min 0 min 0 W/m 16,1 km/h (3 Bft) 95,74 %
14.11.2023 06:50 11,1 C 10,6 C 7,2 C 89 % 1004,9 hPa 0,0 l/m 0 min 0 min 0 W/m 22,5 km/h (4 Bft) 97,83 %
14.11.2023 06:52 11,1 C 10,6 C 7,2 C 89 % 1004,9 hPa 0,0 l/m 0 min 0 min 0 W/m 41,8 km/h (6 Bft) 100,00 %
14.11.2023 06:54 11,1 C 10,6 C 7,2 C 89 % 1004,8 hPa 0,0 l/m 0 min 0 min 0 W/m 22,5 km/h (4 Bft) 100,00 %
14.11.2023 06:56 11,1 C 10,6 C 7,2 C 89 % 1004,8 hPa 0,0 l/m 0 min 0 min 0 W/m 19,3 km/h (3 Bft) 100,00 %
14.11.2023 06:58 11,1 C 10,6 C 7,2 C 89 % 1004,9 hPa 0,0 l/m 0 min 0 min 0 W/m 22,5 km/h (4 Bft) 100,00 %
14.11.2023 07:00 11,1 C 10,0 C 7,2 C 89 % 1004,8 hPa 0,0 l/m 0 min 0 min 0 W/m 41,8 km/h (6 Bft) 100,00 %
14.11.2023 07:02 11,1 C 10,6 C 7,2 C 89 % 1004,9 hPa 0,0 l/m 0 min 0 min 0 W/m 32,2 km/h (5 Bft) 97,96 %
14.11.2023 07:04 11,1 C 10,6 C 7,2 C 89 % 1004,9 hPa 0,0 l/m 0 min 0 min 0 W/m 25,7 km/h (4 Bft) 100,00 %
14.11.2023 07:06 11,1 C 10,6 C 7,2 C 89 % 1005,0 hPa 0,0 l/m 0 min 0 min 0 W/m 32,2 km/h (5 Bft) 100,00 %
14.11.2023 07:08 11,2 C 10,6 C 7,2 C 89 % 1005,1 hPa 0,0 l/m 0 min 0 min 0 W/m 25,7 km/h (4 Bft) 100,00 %
14.11.2023 07:10 11,2 C 10,6 C 7,2 C 89 % 1005,1 hPa 0,0 l/m 0 min 0 min 0 W/m 22,5 km/h (4 Bft) 100,00 %
14.11.2023 07:12 11,2 C 10,6 C 7,2 C 89 % 1004,9 hPa 0,0 l/m 0 min 0 min 0 W/m 38,6 km/h (5 Bft) 97,83 %
14.11.2023 07:14 11,2 C 10,6 C 7,2 C 89 % 1004,9 hPa 0,0 l/m 0 min 0 min 0 W/m 22,5 km/h (4 Bft) 100,00 %
14.11.2023 07:16 11,2 C 10,6 C 7,2 C 89 % 1004,9 hPa 0,0 l/m 0 min 0 min 0 W/m 25,7 km/h (4 Bft) 95,74 %
14.11.2023 07:18 11,3 C 10,6 C 7,2 C 89 % 1005,1 hPa 0,0 l/m 0 min 0 min 0 W/m 29,0 km/h (5 Bft) 100,00 %
14.11.2023 07:20 11,3 C 10,6 C 7,2 C 89 % 1005,1 hPa 0,0 l/m 0 min 0 min 0 W/m 25,7 km/h (4 Bft) 97,87 %
14.11.2023 07:22 11,3 C 10,6 C 7,2 C 89 % 1005,4 hPa 0,0 l/m 0 min 0 min 0 W/m 19,3 km/h (3 Bft) 100,00 %
14.11.2023 07:24 11,3 C 10,6 C 7,2 C 89 % 1005,3 hPa 0,0 l/m 0 min 0 min 0 W/m 25,7 km/h (4 Bft) 100,00 %
14.11.2023 07:26 11,3 C 10,6 C 7,2 C 89 % 1005,3 hPa 0,0 l/m 0 min 0 min 0 W/m 22,5 km/h (4 Bft) 95,74 %
14.11.2023 07:28 11,3 C 10,6 C 7,2 C 89 % 1005,2 hPa 0,0 l/m 0 min 0 min 0 W/m 25,7 km/h (4 Bft) 97,87 %
14.11.2023 07:30 11,3 C 10,6 C 7,2 C 89 % 1005,0 hPa 0,0 l/m 0 min 0 min 0 W/m 25,7 km/h (4 Bft) 97,87 %
14.11.2023 07:32 11,3 C 10,6 C 7,2 C 89 % 1005,0 hPa 0,0 l/m 0 min 0 min 0 W/m 29,0 km/h (5 Bft) 97,87 %
14.11.2023 07:34 11,3 C 10,6 C 7,2 C 89 % 1005,2 hPa 0,0 l/m 0 min 0 min 0 W/m 22,5 km/h (4 Bft) 100,00 %
14.11.2023 07:36 11,3 C 10,6 C 7,2 C 89 % 1005,2 hPa 0,0 l/m 0 min 0 min 0 W/m 22,5 km/h (4 Bft) 100,00 %
14.11.2023 07:38 11,3 C 10,6 C 7,2 C 89 % 1005,2 hPa 0,0 l/m 0 min 0 min 0 W/m 22,5 km/h (4 Bft) 97,87 %
14.11.2023 07:40 11,3 C 10,6 C 7,2 C 89 % 1005,3 hPa 0,0 l/m 0 min 0 min 0 W/m 22,5 km/h (4 Bft) 97,87 %
14.11.2023 07:42 11,3 C 10,6 C 7,2 C 89 % 1005,4 hPa 0,0 l/m 0 min 0 min 0 W/m 16,1 km/h (3 Bft) 93,48 %
14.11.2023 07:44 11,3 C 10,6 C 7,2 C 89 % 1005,3 hPa 0,0 l/m 0 min 0 min 0 W/m 22,5 km/h (4 Bft) 97,87 %
14.11.2023 07:46 11,2 C 10,6 C 7,2 C 89 % 1005,1 hPa 0,0 l/m 0 min 0 min 0 W/m 19,3 km/h (3 Bft) 97,87 %
14.11.2023 07:48 11,2 C 10,6 C 7,2 C 89 % 1005,2 hPa 0,0 l/m 0 min 0 min 0 W/m 32,2 km/h (5 Bft) 97,87 %
14.11.2023 07:50 11,3 C 10,6 C 7,2 C 89 % 1005,3 hPa 0,0 l/m 0 min 0 min 0 W/m 19,3 km/h (3 Bft) 97,87 %
14.11.2023 07:52 11,3 C 10,6 C 7,2 C 89 % 1005,1 hPa 0,0 l/m 0 min 0 min 0 W/m 22,5 km/h (4 Bft) 97,87 %
14.11.2023 07:54 11,3 C 10,6 C 7,2 C 89 % 1005,2 hPa 0,0 l/m 0 min 0 min 0 W/m 29,0 km/h (5 Bft) 97,87 %
14.11.2023 07:56 11,3 C 10,6 C 7,2 C 89 % 1005,2 hPa 0,0 l/m 0 min 0 min 5 W/m 25,7 km/h (4 Bft) 95,74 %
14.11.2023 07:58 11,3 C 10,6 C 7,2 C 89 % 1005,3 hPa 0,0 l/m 0 min 0 min 10 W/m 38,6 km/h (5 Bft) 95,74 %
14.11.2023 08:00 11,3 C 10,6 C 7,2 C 89 % 1005,1 hPa 0,0 l/m 0 min 0 min 12 W/m 12,9 km/h (3 Bft) 98,04 %
14.11.2023 08:02 11,3 C 10,6 C 7,2 C 89 % 1005,1 hPa 0,0 l/m 0 min 0 min 10 W/m 22,5 km/h (4 Bft) 95,35 %
14.11.2023 08:04 11,2 C 10,6 C 7,2 C 89 % 1005,2 hPa 0,0 l/m 0 min 0 min 7 W/m 22,5 km/h (4 Bft) 97,62 %
14.11.2023 08:06 11,3 C 10,6 C 7,2 C 89 % 1005,2 hPa 0,0 l/m 0 min 0 min 10 W/m 19,3 km/h (3 Bft) 97,87 %
14.11.2023 08:08 11,3 C 10,6 C 7,2 C 89 % 1005,4 hPa 0,0 l/m 0 min 0 min 11 W/m 19,3 km/h (3 Bft) 95,65 %
14.11.2023 08:10 11,3 C 10,6 C 7,2 C 89 % 1005,4 hPa 0,0 l/m 0 min 0 min 12 W/m 16,1 km/h (3 Bft) 95,74 %
14.11.2023 08:12 11,3 C 10,6 C 7,2 C 89 % 1005,5 hPa 0,0 l/m 0 min 0 min 11 W/m 12,9 km/h (3 Bft) 97,87 %
14.11.2023 08:14 11,3 C 10,6 C 7,2 C 89 % 1005,6 hPa 0,0 l/m 0 min 0 min 8 W/m 19,3 km/h (3 Bft) 97,87 %
14.11.2023 08:16 11,3 C 10,6 C 7,2 C 89 % 1005,4 hPa 0,0 l/m 0 min 0 min 10 W/m 19,3 km/h (3 Bft) 91,49 %
14.11.2023 08:18 11,3 C 10,6 C 7,2 C 89 % 1005,5 hPa 0,0 l/m 0 min 0 min 15 W/m 25,7 km/h (4 Bft) 97,87 %
14.11.2023 08:20 11,3 C 10,6 C 7,2 C 89 % 1005,6 hPa 0,0 l/m 0 min 0 min 10 W/m 22,5 km/h (4 Bft) 93,62 %
14.11.2023 08:22 11,3 C 10,6 C 7,2 C 89 % 1005,7 hPa 0,0 l/m 0 min 0 min 12 W/m 29,0 km/h (5 Bft) 93,62 %
14.11.2023 08:24 11,3 C 10,6 C 7,2 C 89 % 1005,8 hPa 0,0 l/m 0 min 0 min 18 W/m 22,5 km/h (4 Bft) 95,74 %
14.11.2023 08:26 11,4 C 10,6 C 7,2 C 89 % 1005,7 hPa 0,0 l/m 0 min 0 min 20 W/m 19,3 km/h (3 Bft) 95,65 %
14.11.2023 08:28 11,4 C 10,6 C 7,2 C 89 % 1005,9 hPa 0,0 l/m 0 min 0 min 25 W/m 25,7 km/h (4 Bft) 95,74 %
14.11.2023 08:30 11,4 C 10,6 C 7,2 C 89 % 1005,7 hPa 0,0 l/m 0 min 0 min 32 W/m 19,3 km/h (3 Bft) 95,74 %
14.11.2023 08:32 11,4 C 10,6 C 7,2 C 89 % 1005,8 hPa 0,0 l/m 0 min 0 min 29 W/m 22,5 km/h (4 Bft) 95,74 %
14.11.2023 08:34 11,4 C 10,6 C 7,2 C 89 % 1005,6 hPa 0,0 l/m 0 min 0 min 33 W/m 22,5 km/h (4 Bft) 95,74 %
14.11.2023 08:36 11,4 C 10,6 C 7,2 C 89 % 1005,5 hPa 0,0 l/m 0 min 0 min 35 W/m 29,0 km/h (5 Bft) 93,62 %
14.11.2023 08:38 11,4 C 10,6 C 7,2 C 89 % 1005,5 hPa 0,0 l/m 0 min 0 min 34 W/m 32,2 km/h (5 Bft) 95,74 %
14.11.2023 08:40 11,3 C 10,6 C 7,2 C 89 % 1005,4 hPa 0,0 l/m 0 min 0 min 26 W/m 19,3 km/h (3 Bft) 95,74 %
14.11.2023 08:42 11,4 C 10,6 C 7,2 C 89 % 1005,5 hPa 0,0 l/m 0 min 0 min 20 W/m 35,4 km/h (5 Bft) 93,62 %
14.11.2023 08:44 11,3 C 10,6 C 7,2 C 89 % 1005,5 hPa 0,0 l/m 0 min 0 min 21 W/m 19,3 km/h (3 Bft) 95,74 %
14.11.2023 08:46 11,3 C 10,6 C 7,2 C 89 % 1005,5 hPa 0,0 l/m 0 min 0 min 26 W/m 25,7 km/h (4 Bft) 95,65 %
14.11.2023 08:48 11,3 C 10,6 C 7,2 C 89 % 1005,5 hPa 0,0 l/m 0 min 0 min 23 W/m 25,7 km/h (4 Bft) 97,87 %
14.11.2023 08:50 11,3 C 10,6 C 7,2 C 89 % 1005,6 hPa 0,0 l/m 0 min 0 min 27 W/m 25,7 km/h (4 Bft) 97,87 %
14.11.2023 08:52 11,3 C 10,6 C 7,2 C 89 % 1005,5 hPa 0,0 l/m 0 min 0 min 38 W/m 19,3 km/h (3 Bft) 97,87 %
14.11.2023 08:54 11,3 C 10,6 C 7,2 C 89 % 1005,5 hPa 0,0 l/m 0 min 0 min 47 W/m 19,3 km/h (3 Bft) 95,74 %
14.11.2023 08:56 11,3 C 10,6 C 7,2 C 89 % 1005,4 hPa 0,0 l/m 0 min 0 min 55 W/m 22,5 km/h (4 Bft) 97,87 %
14.11.2023 08:58 11,3 C 10,6 C 7,2 C 89 % 1005,4 hPa 0,0 l/m 0 min 0 min 56 W/m 19,3 km/h (3 Bft) 97,87 %
14.11.2023 09:00 11,3 C 10,6 C 7,2 C 89 % 1005,4 hPa 0,0 l/m 0 min 0 min 43 W/m 25,7 km/h (4 Bft) 97,87 %
14.11.2023 09:02 11,3 C 10,6 C 7,2 C 89 % 1005,3 hPa 0,0 l/m 0 min 0 min 45 W/m 19,3 km/h (3 Bft) 97,87 %
14.11.2023 09:04 11,4 C 11,1 C 7,2 C 89 % 1005,2 hPa 0,0 l/m 0 min 0 min 53 W/m 25,7 km/h (4 Bft) 97,83 %
14.11.2023 09:06 11,4 C 11,1 C 7,2 C 89 % 1005,2 hPa 0,0 l/m 0 min 0 min 54 W/m 22,5 km/h (4 Bft) 97,87 %
14.11.2023 09:08 11,4 C 11,1 C 7,2 C 89 % 1005,3 hPa 0,0 l/m 0 min 0 min 55 W/m 19,3 km/h (3 Bft) 100,00 %
14.11.2023 09:10 11,4 C 11,1 C 7,2 C 90 % 1005,4 hPa 0,0 l/m 0 min 0 min 70 W/m 16,1 km/h (3 Bft) 100,00 %
14.11.2023 09:12 11,4 C 11,1 C 7,2 C 90 % 1005,4 hPa 0,0 l/m 0 min 0 min 71 W/m 57,9 km/h (7 Bft) 100,00 %
14.11.2023 09:14 11,4 C 11,1 C 7,8 C 90 % 1005,4 hPa 0,0 l/m 0 min 0 min 65 W/m 12,9 km/h (3 Bft) 100,00 %
14.11.2023 09:16 11,5 C 11,1 C 7,8 C 90 % 1005,5 hPa 0,0 l/m 0 min 0 min 67 W/m 19,3 km/h (3 Bft) 100,00 %
14.11.2023 09:18 11,5 C 11,1 C 7,8 C 90 % 1005,4 hPa 0,0 l/m 0 min 0 min 64 W/m 19,3 km/h (3 Bft) 100,00 %
14.11.2023 09:20 11,6 C 11,1 C 7,8 C 90 % 1005,5 hPa 0,0 l/m 0 min 0 min 48 W/m 32,2 km/h (5 Bft) 100,00 %
14.11.2023 09:22 11,6 C 11,1 C 7,8 C 90 % 1005,5 hPa 0,0 l/m 0 min 0 min 43 W/m 19,3 km/h (3 Bft) 95,65 %
14.11.2023 09:24 11,6 C 11,1 C 7,8 C 90 % 1005,5 hPa 0,0 l/m 0 min 0 min 43 W/m 19,3 km/h (3 Bft) 100,00 %
14.11.2023 09:26 11,6 C 11,1 C 7,8 C 90 % 1005,6 hPa 0,0 l/m 0 min 0 min 49 W/m 16,1 km/h (3 Bft) 100,00 %
14.11.2023 09:28 11,6 C 11,1 C 7,8 C 90 % 1005,6 hPa 0,0 l/m 0 min 0 min 49 W/m 16,1 km/h (3 Bft) 100,00 %
14.11.2023 09:30 11,6 C 11,1 C 7,8 C 90 % 1005,6 hPa 0,0 l/m 0 min 0 min 41 W/m 12,9 km/h (3 Bft) 100,00 %
14.11.2023 09:32 11,6 C 11,1 C 7,8 C 90 % 1005,6 hPa 0,0 l/m 0 min 0 min 40 W/m 22,5 km/h (4 Bft) 100,00 %
14.11.2023 09:34 11,6 C 11,1 C 7,8 C 90 % 1005,6 hPa 0,0 l/m 0 min 0 min 48 W/m 29,0 km/h (5 Bft) 97,87 %
14.11.2023 09:36 11,6 C 11,1 C 7,8 C 90 % 1005,7 hPa 0,0 l/m 0 min 0 min 55 W/m 22,5 km/h (4 Bft) 100,00 %
14.11.2023 09:38 11,7 C 11,1 C 7,8 C 90 % 1005,5 hPa 0,0 l/m 0 min 0 min 62 W/m 16,1 km/h (3 Bft) 100,00 %
14.11.2023 09:40 11,6 C 11,1 C 7,8 C 89 % 1005,6 hPa 0,0 l/m 0 min 0 min 57 W/m 16,1 km/h (3 Bft) 95,74 %
14.11.2023 09:42 11,7 C 11,1 C 7,8 C 89 % 1005,4 hPa 0,0 l/m 0 min 0 min 82 W/m 22,5 km/h (4 Bft) 97,87 %
14.11.2023 09:44 11,7 C 11,1 C 7,8 C 89 % 1005,4 hPa 0,0 l/m 0 min 0 min 54 W/m 25,7 km/h (4 Bft) 100,00 %
14.11.2023 09:46 11,7 C 11,1 C 7,8 C 89 % 1005,5 hPa 0,0 l/m 0 min 0 min 68 W/m 25,7 km/h (4 Bft) 100,00 %
14.11.2023 09:48 11,7 C 11,7 C 7,8 C 89 % 1005,5 hPa 0,0 l/m 0 min 0 min 77 W/m 25,7 km/h (4 Bft) 100,00 %
14.11.2023 09:50 11,8 C 11,7 C 7,8 C 89 % 1005,4 hPa 0,0 l/m 0 min 0 min 71 W/m 19,3 km/h (3 Bft) 95,74 %
14.11.2023 09:52 11,8 C 11,7 C 7,8 C 89 % 1005,5 hPa 0,0 l/m 0 min 0 min 47 W/m 16,1 km/h (3 Bft) 100,00 %
14.11.2023 09:54 11,8 C 11,7 C 7,8 C 89 % 1005,4 hPa 0,0 l/m 0 min 0 min 75 W/m 19,3 km/h (3 Bft) 97,87 %
14.11.2023 09:56 11,8 C 11,7 C 7,8 C 89 % 1005,4 hPa 0,0 l/m 0 min 0 min 73 W/m 22,5 km/h (4 Bft) 97,87 %
14.11.2023 09:58 11,9 C 11,7 C 7,8 C 89 % 1005,3 hPa 0,0 l/m 0 min 0 min 65 W/m 19,3 km/h (3 Bft) 100,00 %
14.11.2023 10:00 11,9 C 11,7 C 7,8 C 89 % 1005,4 hPa 0,0 l/m 0 min 0 min 59 W/m 22,5 km/h (4 Bft) 100,00 %
14.11.2023 10:02 11,9 C 11,1 C 7,8 C 89 % 1005,4 hPa 0,0 l/m 0 min 2 min 32 W/m 32,2 km/h (5 Bft) 97,83 %
14.11.2023 10:04 11,9 C 11,1 C 7,2 C 90 % 1005,5 hPa 0,0 l/m 0 min 2 min 40 W/m 22,5 km/h (4 Bft) 100,00 %
14.11.2023 10:08 11,8 C 10,6 C 7,2 C 90 % 1005,6 hPa 0,0 l/m 0 min 4 min 53 W/m 29,0 km/h (5 Bft) 98,94 %
14.11.2023 10:12 11,7 C 10,6 C 7,2 C 91 % 1005,5 hPa 0,0 l/m 0 min 0 min 49 W/m 22,5 km/h (4 Bft) 97,14 %
14.11.2023 10:14 11,7 C 11,1 C 7,2 C 91 % 1005,5 hPa 0,0 l/m 0 min 0 min 57 W/m 32,2 km/h (5 Bft) 97,87 %
14.11.2023 10:16 11,7 C 11,1 C 7,2 C 91 % 1005,6 hPa 0,0 l/m 0 min 0 min 54 W/m 22,5 km/h (4 Bft) 95,74 %
14.11.2023 10:18 11,6 C 11,1 C 7,2 C 91 % 1005,5 hPa 0,0 l/m 0 min 0 min 51 W/m 22,5 km/h (4 Bft) 93,62 %
14.11.2023 10:20 11,7 C 11,1 C 7,2 C 91 % 1005,4 hPa 0,0 l/m 0 min 0 min 70 W/m 16,1 km/h (3 Bft) 95,65 %
14.11.2023 10:22 11,7 C 11,7 C 7,2 C 91 % 1005,5 hPa 0,0 l/m 0 min 0 min 70 W/m 32,2 km/h (5 Bft) 95,74 %
14.11.2023 10:24 11,6 C 11,7 C 7,2 C 91 % 1005,4 hPa 0,0 l/m 0 min 0 min 86 W/m 16,1 km/h (3 Bft) 93,62 %
14.11.2023 10:26 11,7 C 11,7 C 7,2 C 91 % 1005,4 hPa 0,0 l/m 0 min 0 min 109 W/m 16,1 km/h (3 Bft) 95,74 %
14.11.2023 10:28 11,7 C 12,2 C 7,2 C 91 % 1005,4 hPa 0,0 l/m 0 min 0 min 118 W/m 25,7 km/h (4 Bft) 95,74 %
14.11.2023 10:30 11,8 C 12,2 C 7,2 C 91 % 1005,4 hPa 0,0 l/m 2 min 0 min 160 W/m 19,3 km/h (3 Bft) 93,62 %
14.11.2023 10:32 11,8 C 12,2 C 7,8 C 91 % 1005,4 hPa 0,0 l/m 0 min 0 min 129 W/m 19,3 km/h (3 Bft) 95,74 %
14.11.2023 10:34 11,9 C 12,2 C 7,8 C 90 % 1005,4 hPa 0,0 l/m 0 min 0 min 100 W/m 25,7 km/h (4 Bft) 93,62 %
14.11.2023 10:36 11,9 C 12,2 C 7,8 C 90 % 1005,4 hPa 0,0 l/m 0 min 0 min 79 W/m 22,5 km/h (4 Bft) 95,65 %
14.11.2023 10:38 11,9 C 12,2 C 7,8 C 90 % 1005,4 hPa 0,0 l/m 0 min 0 min 87 W/m 19,3 km/h (3 Bft) 95,74 %
14.11.2023 10:40 12,0 C 12,2 C 7,8 C 90 % 1005,4 hPa 0,0 l/m 0 min 0 min 86 W/m 19,3 km/h (3 Bft) 95,74 %
14.11.2023 10:42 12,1 C 12,2 C 7,8 C 90 % 1005,5 hPa 0,0 l/m 0 min 0 min 90 W/m 51,5 km/h (7 Bft) 95,74 %
14.11.2023 10:44 12,1 C 12,2 C 7,8 C 89 % 1005,4 hPa 0,0 l/m 0 min 0 min 89 W/m 25,7 km/h (4 Bft) 93,62 %
14.11.2023 10:46 12,2 C 12,2 C 7,8 C 89 % 1005,5 hPa 0,0 l/m 0 min 0 min 67 W/m 38,6 km/h (5 Bft) 95,74 %
14.11.2023 10:48 12,2 C 12,2 C 7,8 C 89 % 1005,6 hPa 0,0 l/m 0 min 0 min 62 W/m 12,9 km/h (3 Bft) 95,74 %
14.11.2023 10:50 12,2 C 12,2 C 7,8 C 89 % 1005,7 hPa 0,0 l/m 0 min 0 min 62 W/m 16,1 km/h (3 Bft) 97,87 %
14.11.2023 10:52 12,2 C 11,7 C 7,8 C 89 % 1005,6 hPa 0,0 l/m 0 min 0 min 64 W/m 22,5 km/h (4 Bft) 97,87 %
14.11.2023 10:54 12,2 C 11,7 C 7,8 C 89 % 1005,6 hPa 0,0 l/m 0 min 0 min 64 W/m 22,5 km/h (4 Bft) 97,87 %
14.11.2023 10:56 12,2 C 11,7 C 7,8 C 89 % 1005,7 hPa 0,0 l/m 0 min 0 min 75 W/m 19,3 km/h (3 Bft) 97,83 %
14.11.2023 10:58 12,2 C 11,7 C 7,8 C 89 % 1005,7 hPa 0,0 l/m 0 min 0 min 80 W/m 32,2 km/h (5 Bft) 94,34 %
14.11.2023 11:00 12,2 C 11,7 C 7,8 C 89 % 1005,7 hPa 0,0 l/m 0 min 0 min 63 W/m 25,7 km/h (4 Bft) 100,00 %
14.11.2023 11:02 12,2 C 11,7 C 7,8 C 89 % 1005,8 hPa 0,0 l/m 0 min 0 min 68 W/m 22,5 km/h (4 Bft) 100,00 %
14.11.2023 11:04 12,2 C 11,7 C 8,3 C 89 % 1005,8 hPa 0,0 l/m 0 min 0 min 86 W/m 32,2 km/h (5 Bft) 100,00 %
14.11.2023 11:08 12,2 C 11,7 C 8,3 C 89 % 1005,9 hPa 0,0 l/m 0 min 0 min 60 W/m 32,2 km/h (5 Bft) 98,80 %
14.11.2023 11:09 12,3 C 11,7 C 8,3 C 89 % 1005,8 hPa 0,0 l/m 0 min 0 min 56 W/m 19,3 km/h (3 Bft) 95,65 %
14.11.2023 11:12 12,2 C 11,7 C 8,3 C 89 % 1005,7 hPa 0,0 l/m 0 min 0 min 64 W/m 35,4 km/h (5 Bft) 98,59 %
14.11.2023 11:14 12,2 C 11,7 C 8,3 C 88 % 1005,8 hPa 0,0 l/m 0 min 0 min 56 W/m 45,1 km/h (6 Bft) 95,65 %
14.11.2023 11:16 12,3 C 11,7 C 8,3 C 88 % 1005,8 hPa 0,0 l/m 0 min 0 min 54 W/m 22,5 km/h (4 Bft) 97,87 %
14.11.2023 11:18 12,2 C 11,7 C 8,3 C 88 % 1005,8 hPa 0,0 l/m 0 min 0 min 54 W/m 22,5 km/h (4 Bft) 97,87 %
14.11.2023 11:20 12,2 C 11,7 C 8,3 C 89 % 1005,9 hPa 0,0 l/m 0 min 0 min 63 W/m 25,7 km/h (4 Bft) 95,74 %
14.11.2023 11:22 12,2 C 11,7 C 8,3 C 89 % 1005,9 hPa 0,0 l/m 0 min 0 min 88 W/m 25,7 km/h (4 Bft) 97,87 %
14.11.2023 11:24 12,2 C 11,7 C 8,3 C 89 % 1005,9 hPa 0,0 l/m 0 min 0 min 105 W/m 25,7 km/h (4 Bft) 97,87 %
14.11.2023 11:26 12,2 C 12,2 C 8,3 C 89 % 1005,8 hPa 0,0 l/m 0 min 0 min 115 W/m 22,5 km/h (4 Bft) 97,87 %
14.11.2023 11:28 12,3 C 12,2 C 8,3 C 89 % 1005,8 hPa 0,0 l/m 0 min 0 min 127 W/m 45,1 km/h (6 Bft) 97,87 %
14.11.2023 11:30 12,3 C 12,2 C 8,3 C 89 % 1005,7 hPa 0,0 l/m 0 min 0 min 120 W/m 29,0 km/h (5 Bft) 97,83 %
14.11.2023 11:32 12,3 C 12,2 C 8,3 C 89 % 1005,8 hPa 0,0 l/m 0 min 0 min 116 W/m 19,3 km/h (3 Bft) 93,62 %
14.11.2023 11:34 12,3 C 12,2 C 8,3 C 89 % 1005,8 hPa 0,0 l/m 0 min 0 min 105 W/m 22,5 km/h (4 Bft) 97,87 %
14.11.2023 11:36 12,3 C 12,2 C 8,3 C 89 % 1005,6 hPa 0,0 l/m 0 min 2 min 87 W/m 16,1 km/h (3 Bft) 97,87 %
14.11.2023 11:38 12,4 C 11,7 C 7,8 C 89 % 1005,7 hPa 0,0 l/m 0 min 2 min 89 W/m 32,2 km/h (5 Bft) 95,74 %
14.11.2023 11:40 12,3 C 11,7 C 7,8 C 89 % 1005,7 hPa 0,0 l/m 0 min 2 min 91 W/m 25,7 km/h (4 Bft) 97,87 %
14.11.2023 11:42 12,3 C 11,7 C 7,8 C 89 % 1005,7 hPa 0,0 l/m 0 min 2 min 93 W/m 29,0 km/h (5 Bft) 97,87 %
14.11.2023 11:44 12,3 C 11,7 C 7,8 C 90 % 1005,6 hPa 0,0 l/m 0 min 2 min 89 W/m 41,8 km/h (6 Bft) 97,87 %
14.11.2023 11:46 12,2 C 11,7 C 7,2 C 90 % 1005,5 hPa 0,0 l/m 0 min 2 min 93 W/m 38,6 km/h (5 Bft) 96,23 %
14.11.2023 11:48 12,2 C 11,1 C 7,2 C 90 % 1005,4 hPa 0,0 l/m 0 min 2 min 94 W/m 25,7 km/h (4 Bft) 95,65 %
14.11.2023 11:50 12,1 C 11,1 C 7,2 C 90 % 1005,5 hPa 0,0 l/m 0 min 2 min 81 W/m 22,5 km/h (4 Bft) 95,74 %
14.11.2023 11:52 12,1 C 11,1 C 7,2 C 91 % 1005,4 hPa 0,0 l/m 0 min 2 min 70 W/m 25,7 km/h (4 Bft) 97,87 %
14.11.2023 11:54 11,9 C 10,6 C 7,2 C 91 % 1005,4 hPa 0,2 l/m 0 min 2 min 66 W/m 35,4 km/h (5 Bft) 97,96 %
14.11.2023 11:56 11,9 C 10,6 C 7,2 C 91 % 1005,4 hPa 0,0 l/m 0 min 2 min 65 W/m 22,5 km/h (4 Bft) 97,87 %
14.11.2023 11:58 11,8 C 10,0 C 6,7 C 91 % 1005,4 hPa 0,2 l/m 0 min 2 min 45 W/m 29,0 km/h (5 Bft) 61,70 %
14.11.2023 12:00 11,7 C 10,0 C 6,7 C 92 % 1005,5 hPa 0,2 l/m 0 min 2 min 37 W/m 41,8 km/h (6 Bft) 95,74 %
14.11.2023 12:02 11,6 C 10,0 C 6,7 C 92 % 1005,4 hPa 0,2 l/m 0 min 2 min 34 W/m 41,8 km/h (6 Bft) 95,74 %
14.11.2023 12:04 11,5 C 10,0 C 6,7 C 93 % 1005,4 hPa 0,0 l/m 0 min 2 min 37 W/m 16,1 km/h (3 Bft) 95,56 %
14.11.2023 12:10 11,4 C 10,0 C 6,7 C 94 % 1005,2 hPa 0,2 l/m 0 min 5 min 38 W/m 29,0 km/h (5 Bft) 100,00 %
14.11.2023 12:12 11,3 C 10,0 C 6,7 C 94 % 1005,3 hPa 0,0 l/m 0 min 0 min 55 W/m 25,7 km/h (4 Bft) 95,74 %
14.11.2023 12:16 11,3 C 10,0 C 6,7 C 94 % 1005,2 hPa 0,0 l/m 0 min 0 min 56 W/m 25,7 km/h (4 Bft) 97,87 %
14.11.2023 12:18 11,3 C 10,0 C 6,7 C 94 % 1005,2 hPa 0,0 l/m 0 min 0 min 57 W/m 16,1 km/h (3 Bft) 93,62 %
14.11.2023 12:20 11,3 C 10,0 C 6,7 C 95 % 1005,2 hPa 0,0 l/m 0 min 0 min 62 W/m 22,5 km/h (4 Bft) 97,83 %
14.11.2023 12:22 11,3 C 10,0 C 6,7 C 95 % 1005,2 hPa 0,0 l/m 0 min 0 min 83 W/m 22,5 km/h (4 Bft) 97,87 %
14.11.2023 12:24 11,3 C 10,0 C 6,7 C 95 % 1005,1 hPa 0,0 l/m 0 min 0 min 90 W/m 16,1 km/h (3 Bft) 97,87 %
14.11.2023 12:26 11,3 C 10,0 C 6,7 C 95 % 1005,1 hPa 0,0 l/m 0 min 0 min 86 W/m 16,1 km/h (3 Bft) 97,87 %
14.11.2023 12:28 11,3 C 10,6 C 6,7 C 95 % 1005,1 hPa 0,0 l/m 0 min 0 min 91 W/m 16,1 km/h (3 Bft) 100,00 %
14.11.2023 12:30 11,3 C 10,6 C 6,7 C 95 % 1005,0 hPa 0,0 l/m 0 min 0 min 99 W/m 16,1 km/h (3 Bft) 96,23 %
14.11.2023 12:32 11,3 C 10,6 C 7,2 C 95 % 1005,0 hPa 0,0 l/m 0 min 0 min 111 W/m 19,3 km/h (3 Bft) 97,87 %
14.11.2023 12:34 11,3 C 10,6 C 7,2 C 95 % 1004,9 hPa 0,0 l/m 0 min 0 min 112 W/m 16,1 km/h (3 Bft) 97,87 %
14.11.2023 12:36 11,4 C 10,6 C 7,2 C 95 % 1004,9 hPa 0,0 l/m 0 min 0 min 106 W/m 19,3 km/h (3 Bft) 97,87 %
14.11.2023 12:38 11,4 C 10,6 C 7,2 C 95 % 1004,9 hPa 0,0 l/m 0 min 0 min 99 W/m 19,3 km/h (3 Bft) 97,87 %
14.11.2023 12:40 11,4 C 10,6 C 7,2 C 95 % 1004,9 hPa 0,0 l/m 0 min 0 min 106 W/m 19,3 km/h (3 Bft) 97,83 %
14.11.2023 12:42 11,4 C 10,6 C 7,2 C 95 % 1004,9 hPa 0,0 l/m 0 min 0 min 115 W/m 25,7 km/h (4 Bft) 97,62 %
14.11.2023 12:44 11,4 C 10,6 C 7,2 C 95 % 1004,8 hPa 0,0 l/m 0 min 0 min 113 W/m 16,1 km/h (3 Bft) 95,65 %
14.11.2023 12:46 11,4 C 10,6 C 7,2 C 95 % 1004,8 hPa 0,0 l/m 0 min 0 min 106 W/m 19,3 km/h (3 Bft) 97,87 %
14.11.2023 12:48 11,4 C 10,6 C 7,2 C 95 % 1004,8 hPa 0,0 l/m 0 min 0 min 101 W/m 22,5 km/h (4 Bft) 100,00 %
14.11.2023 12:50 11,4 C 10,6 C 7,2 C 95 % 1004,8 hPa 0,0 l/m 0 min 0 min 108 W/m 19,3 km/h (3 Bft) 100,00 %
14.11.2023 12:52 11,4 C 10,6 C 7,2 C 95 % 1004,8 hPa 0,0 l/m 0 min 0 min 107 W/m 16,1 km/h (3 Bft) 97,87 %
14.11.2023 12:54 11,5 C 10,6 C 6,7 C 95 % 1004,9 hPa 0,0 l/m 0 min 0 min 103 W/m 25,7 km/h (4 Bft) 96,30 %
14.11.2023 12:56 11,4 C 10,6 C 6,7 C 95 % 1004,8 hPa 0,0 l/m 0 min 0 min 99 W/m 22,5 km/h (4 Bft) 100,00 %
14.11.2023 12:58 11,5 C 10,6 C 6,7 C 94 % 1004,8 hPa 0,0 l/m 0 min 0 min 97 W/m 16,1 km/h (3 Bft) 97,87 %
14.11.2023 13:00 11,5 C 10,6 C 6,7 C 94 % 1004,8 hPa 0,0 l/m 0 min 0 min 97 W/m 9,7 km/h (2 Bft) 97,83 %
14.11.2023 13:02 11,5 C 10,6 C 6,7 C 94 % 1004,7 hPa 0,0 l/m 0 min 0 min 104 W/m 9,7 km/h (2 Bft) 93,62 %
14.11.2023 13:04 11,5 C 11,1 C 6,7 C 94 % 1004,6 hPa 0,0 l/m 0 min 0 min 113 W/m 19,3 km/h (3 Bft) 97,78 %
14.11.2023 13:08 11,5 C 11,7 C 6,7 C 94 % 1004,4 hPa 0,0 l/m 0 min 0 min 162 W/m 22,5 km/h (4 Bft) 98,02 %
14.11.2023 13:09 11,6 C 11,7 C 6,7 C 94 % 1004,5 hPa 0,0 l/m 1 min 0 min 192 W/m 16,1 km/h (3 Bft) 95,65 %
14.11.2023 13:10 11,6 C 11,7 C 7,2 C 94 % 1004,5 hPa 0,0 l/m 1 min 0 min 179 W/m 22,5 km/h (4 Bft) 100,00 %
14.11.2023 13:14 11,6 C 11,7 C 7,2 C 93 % 1004,5 hPa 0,0 l/m 4 min 0 min 199 W/m 12,9 km/h (3 Bft) 94,83 %
14.11.2023 13:16 11,7 C 12,2 C 7,2 C 93 % 1004,4 hPa 0,0 l/m 2 min 0 min 243 W/m 22,5 km/h (4 Bft) 95,83 %
14.11.2023 13:18 11,7 C 12,8 C 7,2 C 93 % 1004,4 hPa 0,0 l/m 2 min 0 min 237 W/m 29,0 km/h (5 Bft) 97,87 %
14.11.2023 13:20 11,8 C 12,8 C 7,2 C 93 % 1004,3 hPa 0,0 l/m 2 min 0 min 274 W/m 22,5 km/h (4 Bft) 97,87 %
14.11.2023 13:22 11,8 C 12,2 C 7,2 C 93 % 1004,3 hPa 0,0 l/m 2 min 0 min 167 W/m 29,0 km/h (5 Bft) 97,87 %
14.11.2023 13:24 11,9 C 11,7 C 7,2 C 92 % 1004,3 hPa 0,0 l/m 0 min 0 min 130 W/m 29,0 km/h (5 Bft) 97,87 %
14.11.2023 13:26 11,9 C 11,7 C 7,2 C 92 % 1004,3 hPa 0,0 l/m 0 min 0 min 119 W/m 25,7 km/h (4 Bft) 95,74 %
14.11.2023 13:28 11,9 C 11,7 C 7,2 C 92 % 1004,3 hPa 0,0 l/m 0 min 0 min 119 W/m 32,2 km/h (5 Bft) 95,74 %
14.11.2023 13:30 11,9 C 11,7 C 7,2 C 92 % 1004,3 hPa 0,0 l/m 0 min 0 min 124 W/m 22,5 km/h (4 Bft) 97,87 %
14.11.2023 13:32 11,9 C 11,7 C 7,2 C 92 % 1004,3 hPa 0,0 l/m 0 min 0 min 103 W/m 29,0 km/h (5 Bft) 97,92 %
14.11.2023 13:34 11,8 C 11,1 C 7,2 C 92 % 1004,3 hPa 0,0 l/m 0 min 0 min 89 W/m 25,7 km/h (4 Bft) 97,87 %
14.11.2023 13:36 11,8 C 11,1 C 7,2 C 92 % 1004,2 hPa 0,0 l/m 0 min 0 min 83 W/m 16,1 km/h (3 Bft) 95,74 %
14.11.2023 13:38 11,8 C 11,1 C 6,7 C 92 % 1004,3 hPa 0,0 l/m 0 min 0 min 91 W/m 25,7 km/h (4 Bft) 100,00 %
14.11.2023 13:40 11,8 C 11,7 C 7,2 C 92 % 1004,2 hPa 0,0 l/m 0 min 0 min 105 W/m 25,7 km/h (4 Bft) 97,87 %
14.11.2023 13:42 11,8 C 11,7 C 7,2 C 92 % 1004,2 hPa 0,0 l/m 0 min 0 min 113 W/m 19,3 km/h (3 Bft) 100,00 %
14.11.2023 13:44 11,8 C 11,7 C 7,2 C 92 % 1004,2 hPa 0,0 l/m 0 min 0 min 120 W/m 16,1 km/h (3 Bft) 100,00 %
14.11.2023 13:46 11,8 C 11,7 C 7,2 C 92 % 1004,2 hPa 0,0 l/m 0 min 0 min 112 W/m 12,9 km/h (3 Bft) 100,00 %
14.11.2023 13:48 11,8 C 11,7 C 6,7 C 91 % 1004,2 hPa 0,0 l/m 0 min 0 min 94 W/m 12,9 km/h (3 Bft) 100,00 %
14.11.2023 13:50 11,8 C 11,7 C 6,7 C 91 % 1004,2 hPa 0,0 l/m 0 min 0 min 93 W/m 16,1 km/h (3 Bft) 100,00 %
14.11.2023 13:52 11,8 C 11,7 C 6,7 C 91 % 1004,1 hPa 0,0 l/m 0 min 0 min 102 W/m 25,7 km/h (4 Bft) 97,87 %
14.11.2023 13:54 11,8 C 11,7 C 6,7 C 90 % 1004,2 hPa 0,0 l/m 0 min 0 min 121 W/m 22,5 km/h (4 Bft) 100,00 %
14.11.2023 13:56 11,8 C 11,7 C 6,7 C 90 % 1004,2 hPa 0,0 l/m 0 min 0 min 140 W/m 19,3 km/h (3 Bft) 95,74 %
14.11.2023 13:58 11,8 C 11,7 C 6,7 C 89 % 1004,1 hPa 0,0 l/m 0 min 0 min 146 W/m 25,7 km/h (4 Bft) 100,00 %
14.11.2023 14:00 11,8 C 11,7 C 6,7 C 89 % 1004,1 hPa 0,0 l/m 2 min 0 min 149 W/m 22,5 km/h (4 Bft) 97,87 %
14.11.2023 14:02 11,8 C 11,7 C 6,7 C 89 % 1004,0 hPa 0,0 l/m 2 min 0 min 148 W/m 19,3 km/h (3 Bft) 97,87 %
14.11.2023 14:04 11,8 C 11,7 C 6,7 C 89 % 1004,1 hPa 0,0 l/m 2 min 0 min 146 W/m 12,9 km/h (3 Bft) 95,92 %
14.11.2023 14:08 11,8 C 11,7 C 6,7 C 88 % 1003,9 hPa 0,0 l/m 4 min 0 min 156 W/m 25,7 km/h (4 Bft) 74,73 %
14.11.2023 14:09 11,8 C 11,7 C 6,7 C 88 % 1004,0 hPa 0,0 l/m 1 min 0 min 162 W/m 19,3 km/h (3 Bft) 95,83 %
14.11.2023 14:10 11,8 C 11,7 C 6,7 C 88 % 1004,0 hPa 0,0 l/m 1 min 0 min 161 W/m 19,3 km/h (3 Bft) 78,07 %
14.11.2023 14:14 11,8 C 11,7 C 6,7 C 88 % 1004,1 hPa 0,0 l/m 4 min 0 min 172 W/m 22,5 km/h (4 Bft) 95,74 %
14.11.2023 14:16 11,9 C 11,7 C 6,7 C 88 % 1004,0 hPa 0,0 l/m 2 min 0 min 176 W/m 9,7 km/h (2 Bft) 95,74 %
14.11.2023 14:18 11,9 C 11,7 C 6,7 C 88 % 1003,9 hPa 0,0 l/m 2 min 0 min 147 W/m 12,9 km/h (3 Bft) 93,62 %
14.11.2023 14:20 11,9 C 11,7 C 6,7 C 89 % 1003,8 hPa 0,0 l/m 2 min 0 min 142 W/m 22,5 km/h (4 Bft) 95,74 %
14.11.2023 14:22 11,9 C 11,7 C 6,7 C 89 % 1003,8 hPa 0,0 l/m 0 min 0 min 132 W/m 19,3 km/h (3 Bft) 95,74 %
14.11.2023 14:24 11,9 C 11,7 C 6,7 C 89 % 1003,8 hPa 0,0 l/m 0 min 0 min 130 W/m 16,1 km/h (3 Bft) 95,74 %
14.11.2023 14:26 11,9 C 11,7 C 6,7 C 89 % 1003,8 hPa 0,0 l/m 2 min 0 min 142 W/m 9,7 km/h (2 Bft) 91,30 %
14.11.2023 14:28 11,9 C 11,7 C 6,7 C 89 % 1003,8 hPa 0,0 l/m 0 min 0 min 121 W/m 12,9 km/h (3 Bft) 93,62 %
14.11.2023 14:30 11,9 C 11,7 C 6,7 C 89 % 1003,8 hPa 0,0 l/m 0 min 0 min 112 W/m 16,1 km/h (3 Bft) 95,74 %
14.11.2023 14:32 11,9 C 11,7 C 6,7 C 90 % 1003,8 hPa 0,0 l/m 0 min 0 min 105 W/m 9,7 km/h (2 Bft) 95,74 %
14.11.2023 14:34 11,9 C 11,7 C 6,7 C 90 % 1003,7 hPa 0,0 l/m 0 min 0 min 104 W/m 12,9 km/h (3 Bft) 95,74 %
14.11.2023 14:36 11,9 C 11,7 C 6,7 C 90 % 1003,7 hPa 0,0 l/m 0 min 0 min 102 W/m 12,9 km/h (3 Bft) 95,74 %
14.11.2023 14:38 11,9 C 11,7 C 6,7 C 90 % 1003,7 hPa 0,0 l/m 0 min 0 min 99 W/m 12,9 km/h (3 Bft) 95,74 %
14.11.2023 14:40 11,9 C 11,7 C 6,7 C 90 % 1003,8 hPa 0,0 l/m 0 min 0 min 96 W/m 19,3 km/h (3 Bft) 95,74 %
14.11.2023 14:42 11,9 C 11,7 C 6,7 C 90 % 1003,7 hPa 0,0 l/m 0 min 0 min 90 W/m 12,9 km/h (3 Bft) 95,74 %
14.11.2023 14:44 11,9 C 11,7 C 6,7 C 90 % 1003,8 hPa 0,0 l/m 0 min 0 min 84 W/m 12,9 km/h (3 Bft) 97,87 %
14.11.2023 14:46 11,9 C 11,7 C 6,7 C 90 % 1003,8 hPa 0,0 l/m 0 min 0 min 76 W/m 12,9 km/h (3 Bft) 97,83 %
14.11.2023 14:48 11,9 C 11,7 C 7,2 C 91 % 1003,7 hPa 0,0 l/m 0 min 0 min 68 W/m 16,1 km/h (3 Bft) 100,00 %
14.11.2023 14:50 11,9 C 11,7 C 7,2 C 91 % 1003,7 hPa 0,0 l/m 0 min 0 min 61 W/m 12,9 km/h (3 Bft) 100,00 %
14.11.2023 14:52 11,8 C 11,1 C 6,7 C 91 % 1003,6 hPa 0,0 l/m 0 min 0 min 55 W/m 12,9 km/h (3 Bft) 100,00 %
14.11.2023 14:54 11,8 C 11,1 C 6,7 C 91 % 1003,6 hPa 0,0 l/m 0 min 0 min 49 W/m 12,9 km/h (3 Bft) 97,87 %
14.11.2023 14:56 11,8 C 11,1 C 6,7 C 91 % 1003,6 hPa 0,0 l/m 0 min 0 min 43 W/m 12,9 km/h (3 Bft) 100,00 %
14.11.2023 14:58 11,8 C 11,1 C 7,2 C 91 % 1003,5 hPa 0,0 l/m 0 min 0 min 39 W/m 9,7 km/h (2 Bft) 100,00 %
14.11.2023 15:00 11,8 C 11,1 C 7,2 C 91 % 1003,5 hPa 0,0 l/m 0 min 0 min 39 W/m 12,9 km/h (3 Bft) 100,00 %
14.11.2023 15:02 11,8 C 11,1 C 7,2 C 91 % 1003,5 hPa 0,0 l/m 0 min 0 min 43 W/m 12,9 km/h (3 Bft) 95,74 %
14.11.2023 15:04 11,8 C 11,1 C 7,2 C 91 % 1003,5 hPa 0,0 l/m 0 min 0 min 40 W/m 3,2 km/h (1 Bft) 100,00 %
14.11.2023 15:06 11,8 C 11,1 C 7,2 C 92 % 1003,4 hPa 0,0 l/m 0 min 0 min 37 W/m 12,9 km/h (3 Bft) 100,00 %
14.11.2023 15:08 11,8 C 11,1 C 7,2 C 92 % 1003,4 hPa 0,0 l/m 0 min 0 min 33 W/m 9,7 km/h (2 Bft) 97,87 %
14.11.2023 15:10 11,8 C 11,1 C 7,2 C 92 % 1003,4 hPa 0,0 l/m 0 min 0 min 29 W/m 9,7 km/h (2 Bft) 97,83 %
14.11.2023 15:12 11,9 C 11,1 C 7,2 C 92 % 1003,4 hPa 0,0 l/m 0 min 0 min 24 W/m 12,9 km/h (3 Bft) 97,87 %
14.11.2023 15:14 11,9 C 11,1 C 7,2 C 92 % 1003,5 hPa 0,0 l/m 0 min 0 min 22 W/m 6,4 km/h (2 Bft) 100,00 %
14.11.2023 15:16 11,9 C 11,1 C 7,2 C 92 % 1003,5 hPa 0,0 l/m 0 min 0 min 24 W/m 25,7 km/h (4 Bft) 100,00 %
14.11.2023 15:18 11,9 C 11,1 C 7,2 C 92 % 1003,4 hPa 0,0 l/m 0 min 0 min 24 W/m 16,1 km/h (3 Bft) 100,00 %
14.11.2023 15:20 11,9 C 11,1 C 7,2 C 92 % 1003,4 hPa 0,0 l/m 0 min 0 min 24 W/m 9,7 km/h (2 Bft) 97,87 %
14.11.2023 15:22 11,9 C 11,1 C 7,2 C 92 % 1003,4 hPa 0,0 l/m 0 min 2 min 22 W/m 19,3 km/h (3 Bft) 100,00 %
14.11.2023 15:24 11,9 C 11,1 C 7,2 C 92 % 1003,4 hPa 0,0 l/m 0 min 2 min 16 W/m 22,5 km/h (4 Bft) 100,00 %
14.11.2023 15:26 11,9 C 11,1 C 7,2 C 92 % 1003,4 hPa 0,0 l/m 0 min 0 min 12 W/m 9,7 km/h (2 Bft) 97,87 %
14.11.2023 15:28 11,9 C 11,1 C 7,2 C 92 % 1003,4 hPa 0,0 l/m 0 min 2 min 11 W/m 6,4 km/h (2 Bft) 100,00 %
14.11.2023 15:30 11,9 C 11,1 C 7,2 C 92 % 1003,4 hPa 0,0 l/m 0 min 2 min 11 W/m 12,9 km/h (3 Bft) 97,87 %
14.11.2023 15:32 11,9 C 11,1 C 7,2 C 92 % 1003,3 hPa 0,0 l/m 0 min 2 min 9 W/m 3,2 km/h (1 Bft) 95,74 %
14.11.2023 15:34 11,9 C 11,1 C 7,2 C 92 % 1003,3 hPa 0,2 l/m 0 min 2 min 9 W/m 6,4 km/h (2 Bft) 93,62 %
14.11.2023 15:36 11,9 C 11,1 C 7,2 C 92 % 1003,2 hPa 0,0 l/m 0 min 2 min 9 W/m 16,1 km/h (3 Bft) 95,74 %
14.11.2023 15:38 11,9 C 10,6 C 7,2 C 92 % 1003,2 hPa 0,0 l/m 0 min 2 min 9 W/m 16,1 km/h (3 Bft) 97,87 %
14.11.2023 15:40 11,8 C 10,6 C 7,2 C 93 % 1003,2 hPa 0,2 l/m 0 min 2 min 9 W/m 6,4 km/h (2 Bft) 97,87 %
14.11.2023 15:42 11,8 C 10,6 C 7,2 C 93 % 1003,2 hPa 0,0 l/m 0 min 2 min 9 W/m 19,3 km/h (3 Bft) 97,87 %
14.11.2023 15:44 11,7 C 10,6 C 6,7 C 93 % 1003,2 hPa 0,0 l/m 0 min 2 min 9 W/m 12,9 km/h (3 Bft) 97,87 %
14.11.2023 15:46 11,7 C 10,6 C 6,7 C 93 % 1003,3 hPa 0,0 l/m 0 min 2 min 7 W/m 16,1 km/h (3 Bft) 97,83 %
14.11.2023 15:48 11,7 C 10,6 C 6,7 C 93 % 1003,3 hPa 0,2 l/m 0 min 2 min 7 W/m 12,9 km/h (3 Bft) 97,87 %
14.11.2023 15:50 11,6 C 10,6 C 6,7 C 93 % 1003,3 hPa 0,0 l/m 0 min 2 min 7 W/m 9,7 km/h (2 Bft) 97,87 %
14.11.2023 15:52 11,6 C 10,6 C 6,7 C 93 % 1003,3 hPa 0,2 l/m 0 min 2 min 7 W/m 6,4 km/h (2 Bft) 97,87 %
14.11.2023 15:54 11,6 C 10,6 C 6,7 C 94 % 1003,3 hPa 0,0 l/m 0 min 2 min 5 W/m 6,4 km/h (2 Bft) 97,87 %
14.11.2023 15:56 11,5 C 10,6 C 6,7 C 94 % 1003,3 hPa 0,0 l/m 0 min 2 min 5 W/m 6,4 km/h (2 Bft) 98,08 %
14.11.2023 15:58 11,4 C 10,6 C 6,7 C 94 % 1003,3 hPa 0,2 l/m 0 min 2 min 5 W/m 6,4 km/h (2 Bft) 95,74 %
14.11.2023 16:00 11,4 C 10,0 C 6,7 C 94 % 1003,2 hPa 0,0 l/m 0 min 2 min 5 W/m 12,9 km/h (3 Bft) 95,65 %
14.11.2023 16:02 11,4 C 10,0 C 6,7 C 94 % 1003,1 hPa 0,2 l/m 0 min 2 min 5 W/m 9,7 km/h (2 Bft) 97,87 %
14.11.2023 16:04 11,3 C 10,0 C 6,7 C 94 % 1003,1 hPa 0,0 l/m 0 min 2 min 5 W/m 12,9 km/h (3 Bft) 93,48 %
14.11.2023 16:06 11,3 C 10,0 C 6,7 C 94 % 1003,1 hPa 0,0 l/m 0 min 2 min 5 W/m 6,4 km/h (2 Bft) 95,74 %
14.11.2023 16:08 11,3 C 10,0 C 6,7 C 95 % 1003,1 hPa 0,0 l/m 0 min 2 min 5 W/m 6,4 km/h (2 Bft) 93,62 %
14.11.2023 16:10 11,2 C 10,0 C 6,7 C 95 % 1003,1 hPa 0,2 l/m 0 min 2 min 5 W/m 16,1 km/h (3 Bft) 95,74 %
14.11.2023 16:12 11,2 C 10,0 C 6,7 C 95 % 1003,0 hPa 0,0 l/m 0 min 2 min 5 W/m 19,3 km/h (3 Bft) 95,74 %
14.11.2023 16:14 11,2 C 10,0 C 6,7 C 95 % 1003,0 hPa 0,0 l/m 0 min 2 min 3 W/m 9,7 km/h (2 Bft) 97,87 %
14.11.2023 16:16 11,1 C 10,0 C 6,7 C 95 % 1002,8 hPa 0,0 l/m 0 min 2 min 0 W/m 6,4 km/h (2 Bft) 97,87 %
14.11.2023 16:18 11,1 C 10,0 C 6,7 C 95 % 1002,9 hPa 0,2 l/m 0 min 2 min 0 W/m 9,7 km/h (2 Bft) 97,83 %
14.11.2023 16:20 11,1 C 10,0 C 6,7 C 95 % 1002,8 hPa 0,0 l/m 0 min 2 min 0 W/m 3,2 km/h (1 Bft) 97,87 %
14.11.2023 16:24 11,1 C 10,0 C 6,7 C 95 % 1002,9 hPa 0,2 l/m 0 min 4 min 0 W/m 6,4 km/h (2 Bft) 97,87 %
14.11.2023 16:25 11,0 C 10,0 C 6,7 C 95 % 1002,9 hPa 0,2 l/m 0 min 1 min 0 W/m 6,4 km/h (2 Bft) 100,00 %
14.11.2023 16:28 11,0 C 10,0 C 6,7 C 95 % 1002,9 hPa 0,0 l/m 0 min 3 min 0 W/m 3,2 km/h (1 Bft) 94,29 %
14.11.2023 16:30 10,9 C 10,0 C 6,7 C 96 % 1002,7 hPa 0,0 l/m 0 min 2 min 0 W/m 12,9 km/h (3 Bft) 97,87 %
14.11.2023 16:32 10,9 C 10,0 C 6,7 C 95 % 1002,8 hPa 0,0 l/m 0 min 2 min 0 W/m 19,3 km/h (3 Bft) 97,92 %
14.11.2023 16:34 10,9 C 10,0 C 6,7 C 95 % 1002,8 hPa 0,0 l/m 0 min 2 min 0 W/m 12,9 km/h (3 Bft) 93,62 %
14.11.2023 16:36 10,8 C 10,0 C 6,7 C 96 % 1002,8 hPa 0,2 l/m 0 min 2 min 0 W/m 9,7 km/h (2 Bft) 100,00 %
14.11.2023 16:38 10,8 C 10,0 C 6,7 C 96 % 1002,8 hPa 0,0 l/m 0 min 2 min 0 W/m 12,9 km/h (3 Bft) 97,87 %
14.11.2023 16:40 10,8 C 10,0 C 6,7 C 96 % 1002,8 hPa 0,0 l/m 0 min 2 min 0 W/m 9,7 km/h (2 Bft) 100,00 %
14.11.2023 16:42 10,8 C 10,0 C 6,7 C 96 % 1002,7 hPa 0,0 l/m 0 min 2 min 0 W/m 3,2 km/h (1 Bft) 100,00 %
14.11.2023 16:44 10,8 C 9,4 C 6,7 C 96 % 1002,7 hPa 0,2 l/m 0 min 2 min 0 W/m 6,4 km/h (2 Bft) 100,00 %
14.11.2023 16:46 10,7 C 9,4 C 6,7 C 96 % 1002,6 hPa 0,0 l/m 0 min 2 min 0 W/m 6,4 km/h (2 Bft) 100,00 %
14.11.2023 16:48 10,7 C 9,4 C 6,7 C 96 % 1002,7 hPa 0,2 l/m 0 min 2 min 0 W/m 16,1 km/h (3 Bft) 100,00 %
14.11.2023 16:50 10,7 C 9,4 C 6,7 C 96 % 1002,6 hPa 0,0 l/m 0 min 2 min 0 W/m 16,1 km/h (3 Bft) 100,00 %
14.11.2023 16:52 10,6 C 9,4 C 6,7 C 96 % 1002,5 hPa 0,0 l/m 0 min 2 min 0 W/m 12,9 km/h (3 Bft) 100,00 %
14.11.2023 16:54 10,6 C 9,4 C 6,7 C 96 % 1002,4 hPa 0,0 l/m 0 min 2 min 0 W/m 12,9 km/h (3 Bft) 97,92 %
14.11.2023 16:56 10,6 C 9,4 C 6,7 C 96 % 1002,4 hPa 0,0 l/m 0 min 2 min 0 W/m 6,4 km/h (2 Bft) 97,87 %
14.11.2023 16:58 10,6 C 9,4 C 6,7 C 96 % 1002,4 hPa 0,2 l/m 0 min 2 min 0 W/m 6,4 km/h (2 Bft) 95,74 %
14.11.2023 17:00 10,6 C 9,4 C 6,7 C 96 % 1002,4 hPa 0,0 l/m 0 min 2 min 0 W/m 3,2 km/h (1 Bft) 97,87 %
14.11.2023 17:02 10,6 C 9,4 C 6,7 C 96 % 1002,3 hPa 0,0 l/m 0 min 2 min 0 W/m 6,4 km/h (2 Bft) 97,96 %
14.11.2023 17:04 10,5 C 9,4 C 6,7 C 96 % 1002,3 hPa 0,2 l/m 0 min 2 min 0 W/m 3,2 km/h (1 Bft) 97,92 %
14.11.2023 17:10 10,5 C 9,4 C 6,7 C 96 % 1002,3 hPa 0,2 l/m 0 min 5 min 0 W/m 6,4 km/h (2 Bft) 97,92 %
14.11.2023 17:12 10,4 C 9,4 C 6,7 C 96 % 1002,2 hPa 0,0 l/m 0 min 2 min 0 W/m 3,2 km/h (1 Bft) 97,14 %
14.11.2023 17:14 10,4 C 9,4 C 6,7 C 96 % 1002,2 hPa 0,2 l/m 0 min 2 min 0 W/m 3,2 km/h (1 Bft) 97,87 %
14.11.2023 17:16 10,4 C 9,4 C 6,7 C 97 % 1002,2 hPa 0,0 l/m 0 min 2 min 0 W/m 9,7 km/h (2 Bft) 95,74 %
14.11.2023 17:18 10,4 C 9,4 C 6,7 C 97 % 1002,2 hPa 0,2 l/m 0 min 2 min 0 W/m 3,2 km/h (1 Bft) 95,74 %
14.11.2023 17:20 10,4 C 9,4 C 6,7 C 97 % 1002,2 hPa 0,0 l/m 0 min 2 min 0 W/m 3,2 km/h (1 Bft) 97,87 %
14.11.2023 17:22 10,4 C 9,4 C 6,7 C 96 % 1002,2 hPa 0,0 l/m 0 min 2 min 0 W/m 0,0 km/h (0 Bft) 97,87 %
14.11.2023 17:24 10,4 C 9,4 C 6,7 C 96 % 1002,1 hPa 0,2 l/m 0 min 2 min 0 W/m 3,2 km/h (1 Bft) 97,83 %
14.11.2023 17:26 10,4 C 9,4 C 6,7 C 96 % 1002,1 hPa 0,4 l/m 0 min 2 min 0 W/m 3,2 km/h (1 Bft) 95,74 %
14.11.2023 17:28 10,4 C 9,4 C 6,7 C 96 % 1002,2 hPa 0,2 l/m 0 min 2 min 0 W/m 6,4 km/h (2 Bft) 95,74 %
14.11.2023 17:30 10,4 C 9,4 C 6,7 C 97 % 1002,1 hPa 0,2 l/m 0 min 2 min 0 W/m 6,4 km/h (2 Bft) 97,87 %
14.11.2023 17:32 10,3 C 9,4 C 6,7 C 97 % 1002,1 hPa 0,0 l/m 0 min 2 min 0 W/m 3,2 km/h (1 Bft) 98,00 %
14.11.2023 17:34 10,3 C 9,4 C 6,7 C 97 % 1002,0 hPa 0,0 l/m 0 min 2 min 0 W/m 6,4 km/h (2 Bft) 95,74 %
14.11.2023 17:36 10,3 C 9,4 C 6,7 C 97 % 1002,0 hPa 0,0 l/m 0 min 0 min 0 W/m 12,9 km/h (3 Bft) 97,83 %
14.11.2023 17:38 10,3 C 9,4 C 6,7 C 97 % 1001,9 hPa 0,0 l/m 0 min 0 min 0 W/m 12,9 km/h (3 Bft) 97,87 %
14.11.2023 17:40 10,3 C 9,4 C 6,7 C 97 % 1001,9 hPa 0,2 l/m 0 min 2 min 0 W/m 6,4 km/h (2 Bft) 97,87 %
14.11.2023 17:42 10,3 C 9,4 C 6,7 C 97 % 1001,9 hPa 0,0 l/m 0 min 2 min 0 W/m 9,7 km/h (2 Bft) 95,74 %
14.11.2023 17:44 10,3 C 9,4 C 6,7 C 97 % 1001,9 hPa 0,0 l/m 0 min 2 min 0 W/m 9,7 km/h (2 Bft) 97,87 %
14.11.2023 17:46 10,3 C 9,4 C 6,7 C 97 % 1001,9 hPa 0,0 l/m 0 min 2 min 0 W/m 0,0 km/h (0 Bft) 93,62 %
14.11.2023 17:48 10,3 C 9,4 C 6,7 C 97 % 1001,8 hPa 0,0 l/m 0 min 2 min 0 W/m 9,7 km/h (2 Bft) 100,00 %
14.11.2023 17:50 10,3 C 9,4 C 6,7 C 97 % 1001,8 hPa 0,2 l/m 0 min 2 min 0 W/m 0,0 km/h (0 Bft) 100,00 %
14.11.2023 17:52 10,3 C 9,4 C 6,7 C 97 % 1001,7 hPa 0,0 l/m 0 min 2 min 0 W/m 0,0 km/h (0 Bft) 95,74 %
14.11.2023 17:54 10,3 C 9,4 C 6,7 C 97 % 1001,7 hPa 0,0 l/m 0 min 2 min 0 W/m 9,7 km/h (2 Bft) 100,00 %
14.11.2023 17:56 10,3 C 9,4 C 6,7 C 97 % 1001,6 hPa 0,2 l/m 0 min 2 min 0 W/m 3,2 km/h (1 Bft) 95,74 %
14.11.2023 17:58 10,3 C 9,4 C 6,7 C 97 % 1001,6 hPa 0,0 l/m 0 min 2 min 0 W/m 3,2 km/h (1 Bft) 97,83 %
14.11.2023 18:00 10,3 C 9,4 C 6,7 C 97 % 1001,5 hPa 0,2 l/m 0 min 2 min 0 W/m 3,2 km/h (1 Bft) 97,87 %
14.11.2023 18:02 10,3 C 9,4 C 6,7 C 97 % 1001,6 hPa 0,0 l/m 0 min 2 min 0 W/m 0,0 km/h (0 Bft) 95,74 %
14.11.2023 18:04 10,3 C 9,4 C 6,7 C 97 % 1001,5 hPa 0,2 l/m 0 min 2 min 0 W/m 0,0 km/h (0 Bft) 96,08 %
14.11.2023 18:08 10,3 C 9,4 C 6,7 C 97 % 1001,4 hPa 0,2 l/m 0 min 4 min 0 W/m 3,2 km/h (1 Bft) 96,70 %
14.11.2023 18:10 10,3 C 9,4 C 6,7 C 97 % 1001,4 hPa 0,0 l/m 0 min 2 min 0 W/m 3,2 km/h (1 Bft) 87,23 %
14.11.2023 18:12 10,3 C 9,4 C 6,7 C 97 % 1001,3 hPa 0,2 l/m 0 min 2 min 0 W/m 3,2 km/h (1 Bft) 68,09 %
14.11.2023 18:16 10,3 C 9,4 C 6,7 C 97 % 1001,3 hPa 0,2 l/m 0 min 4 min 0 W/m 3,2 km/h (1 Bft) 93,62 %
14.11.2023 18:18 10,3 C 9,4 C 6,7 C 97 % 1001,2 hPa 0,2 l/m 0 min 2 min 0 W/m 22,5 km/h (4 Bft) 95,74 %
14.11.2023 18:20 10,3 C 9,4 C 6,7 C 97 % 1001,2 hPa 0,2 l/m 0 min 2 min 0 W/m 16,1 km/h (3 Bft) 95,74 %
14.11.2023 18:22 10,3 C 9,4 C 6,7 C 97 % 1001,1 hPa 0,0 l/m 0 min 2 min 0 W/m 12,9 km/h (3 Bft) 95,65 %
14.11.2023 18:24 10,3 C 9,4 C 6,7 C 97 % 1001,0 hPa 0,2 l/m 0 min 2 min 0 W/m 9,7 km/h (2 Bft) 95,74 %
14.11.2023 18:26 10,3 C 9,4 C 6,7 C 97 % 1001,0 hPa 0,2 l/m 0 min 2 min 0 W/m 6,4 km/h (2 Bft) 95,74 %
14.11.2023 18:28 10,3 C 9,4 C 6,7 C 97 % 1001,0 hPa 0,0 l/m 0 min 2 min 0 W/m 16,1 km/h (3 Bft) 95,74 %
14.11.2023 18:30 10,3 C 9,4 C 6,7 C 98 % 1000,9 hPa 0,0 l/m 0 min 2 min 0 W/m 16,1 km/h (3 Bft) 95,74 %
14.11.2023 18:32 10,3 C 9,4 C 6,7 C 98 % 1000,9 hPa 0,0 l/m 0 min 2 min 0 W/m 16,1 km/h (3 Bft) 97,87 %
14.11.2023 18:34 10,3 C 9,4 C 6,7 C 98 % 1001,0 hPa 0,0 l/m 0 min 2 min 0 W/m 6,4 km/h (2 Bft) 97,87 %
14.11.2023 18:36 10,3 C 9,4 C 6,7 C 98 % 1000,9 hPa 0,2 l/m 0 min 2 min 0 W/m 6,4 km/h (2 Bft) 97,87 %
14.11.2023 18:38 10,4 C 9,4 C 6,7 C 98 % 1000,9 hPa 0,2 l/m 0 min 2 min 0 W/m 19,3 km/h (3 Bft) 97,87 %
14.11.2023 18:40 10,3 C 9,4 C 6,7 C 98 % 1000,9 hPa 0,2 l/m 0 min 2 min 0 W/m 16,1 km/h (3 Bft) 97,87 %
14.11.2023 18:42 10,3 C 9,4 C 6,7 C 98 % 1000,8 hPa 0,2 l/m 0 min 2 min 0 W/m 12,9 km/h (3 Bft) 95,74 %
14.11.2023 18:44 10,3 C 9,4 C 6,7 C 98 % 1000,8 hPa 0,0 l/m 0 min 2 min 0 W/m 9,7 km/h (2 Bft) 97,87 %
14.11.2023 18:46 10,3 C 9,4 C 6,7 C 98 % 1000,8 hPa 0,2 l/m 0 min 2 min 0 W/m 12,9 km/h (3 Bft) 93,48 %
14.11.2023 18:48 10,3 C 9,4 C 6,7 C 98 % 1000,8 hPa 0,2 l/m 0 min 2 min 0 W/m 12,9 km/h (3 Bft) 100,00 %
14.11.2023 18:50 10,3 C 9,4 C 6,7 C 98 % 1000,7 hPa 0,0 l/m 0 min 2 min 0 W/m 6,4 km/h (2 Bft) 100,00 %
14.11.2023 18:52 10,3 C 9,4 C 6,7 C 98 % 1000,8 hPa 0,2 l/m 0 min 2 min 0 W/m 6,4 km/h (2 Bft) 100,00 %
14.11.2023 18:54 10,3 C 9,4 C 6,7 C 98 % 1000,6 hPa 0,2 l/m 0 min 2 min 0 W/m 6,4 km/h (2 Bft) 100,00 %
14.11.2023 18:56 10,3 C 9,4 C 6,7 C 98 % 1000,7 hPa 0,2 l/m 0 min 2 min 0 W/m 16,1 km/h (3 Bft) 100,00 %
14.11.2023 18:58 10,3 C 9,4 C 6,7 C 98 % 1000,7 hPa 0,2 l/m 0 min 2 min 0 W/m 6,4 km/h (2 Bft) 97,92 %
14.11.2023 19:00 10,3 C 9,4 C 6,7 C 98 % 1000,6 hPa 0,2 l/m 0 min 2 min 0 W/m 6,4 km/h (2 Bft) 100,00 %
14.11.2023 19:02 10,3 C 9,4 C 6,7 C 98 % 1000,5 hPa 0,0 l/m 0 min 2 min 0 W/m 6,4 km/h (2 Bft) 100,00 %
14.11.2023 19:04 10,3 C 9,4 C 6,7 C 98 % 1000,4 hPa 0,2 l/m 0 min 2 min 0 W/m 9,7 km/h (2 Bft) 100,00 %
14.11.2023 19:06 10,3 C 9,4 C 6,7 C 98 % 1000,5 hPa 0,0 l/m 0 min 2 min 0 W/m 9,7 km/h (2 Bft) 100,00 %
14.11.2023 19:08 10,3 C 9,4 C 6,7 C 98 % 1000,4 hPa 0,0 l/m 0 min 2 min 0 W/m 6,4 km/h (2 Bft) 97,87 %
14.11.2023 19:10 10,3 C 9,4 C 6,7 C 98 % 1000,4 hPa 0,0 l/m 0 min 2 min 0 W/m 9,7 km/h (2 Bft) 97,83 %
14.11.2023 19:12 10,3 C 9,4 C 6,7 C 98 % 1000,4 hPa 0,0 l/m 0 min 2 min 0 W/m 6,4 km/h (2 Bft) 100,00 %
14.11.2023 19:14 10,3 C 9,4 C 6,7 C 98 % 1000,3 hPa 0,0 l/m 0 min 0 min 0 W/m 12,9 km/h (3 Bft) 100,00 %
14.11.2023 19:16 10,3 C 9,4 C 6,7 C 98 % 1000,3 hPa 0,2 l/m 0 min 0 min 0 W/m 19,3 km/h (3 Bft) 100,00 %
14.11.2023 19:18 10,3 C 9,4 C 6,7 C 98 % 1000,3 hPa 0,0 l/m 0 min 2 min 0 W/m 19,3 km/h (3 Bft) 100,00 %
14.11.2023 19:20 10,3 C 9,4 C 6,7 C 98 % 1000,3 hPa 0,0 l/m 0 min 2 min 0 W/m 12,9 km/h (3 Bft) 100,00 %
14.11.2023 19:22 10,3 C 9,4 C 6,7 C 98 % 1000,3 hPa 0,0 l/m 0 min 2 min 0 W/m 6,4 km/h (2 Bft) 100,00 %
14.11.2023 19:24 10,3 C 9,4 C 6,7 C 98 % 1000,2 hPa 0,2 l/m 0 min 2 min 0 W/m 12,9 km/h (3 Bft) 100,00 %
14.11.2023 19:26 10,3 C 9,4 C 6,7 C 98 % 1000,2 hPa 0,0 l/m 0 min 2 min 0 W/m 19,3 km/h (3 Bft) 100,00 %
14.11.2023 19:28 10,3 C 9,4 C 6,7 C 98 % 1000,1 hPa 0,0 l/m 0 min 2 min 0 W/m 16,1 km/h (3 Bft) 100,00 %
14.11.2023 19:30 10,3 C 9,4 C 6,7 C 98 % 1000,2 hPa 0,0 l/m 0 min 0 min 0 W/m 16,1 km/h (3 Bft) 100,00 %
14.11.2023 19:32 10,3 C 9,4 C 6,7 C 98 % 1000,2 hPa 0,0 l/m 0 min 0 min 0 W/m 19,3 km/h (3 Bft) 100,00 %
14.11.2023 19:34 10,3 C 9,4 C 6,7 C 98 % 1000,2 hPa 0,0 l/m 0 min 0 min 0 W/m 16,1 km/h (3 Bft) 100,00 %
14.11.2023 19:36 10,3 C 9,4 C 6,7 C 98 % 1000,2 hPa 0,0 l/m 0 min 2 min 0 W/m 12,9 km/h (3 Bft) 100,00 %
14.11.2023 19:38 10,3 C 9,4 C 6,7 C 98 % 1000,3 hPa 0,0 l/m 0 min 2 min 0 W/m 12,9 km/h (3 Bft) 100,00 %
14.11.2023 19:40 10,3 C 9,4 C 6,7 C 98 % 1000,3 hPa 0,0 l/m 0 min 2 min 0 W/m 19,3 km/h (3 Bft) 100,00 %
14.11.2023 19:42 10,3 C 9,4 C 6,7 C 98 % 1000,3 hPa 0,0 l/m 0 min 2 min 0 W/m 16,1 km/h (3 Bft) 100,00 %
14.11.2023 19:44 10,3 C 9,4 C 6,7 C 98 % 1000,3 hPa 0,0 l/m 0 min 2 min 0 W/m 16,1 km/h (3 Bft) 100,00 %
14.11.2023 19:46 10,2 C 9,4 C 6,7 C 98 % 1000,3 hPa 0,2 l/m 0 min 2 min 0 W/m 16,1 km/h (3 Bft) 100,00 %
14.11.2023 19:48 10,2 C 9,4 C 6,1 C 98 % 1000,4 hPa 0,0 l/m 0 min 2 min 0 W/m 19,3 km/h (3 Bft) 100,00 %
14.11.2023 19:50 10,2 C 9,4 C 6,1 C 98 % 1000,7 hPa 0,2 l/m 0 min 2 min 0 W/m 16,1 km/h (3 Bft) 97,87 %
14.11.2023 19:52 10,1 C 9,4 C 6,1 C 98 % 1000,9 hPa 0,4 l/m 0 min 2 min 0 W/m 19,3 km/h (3 Bft) 91,49 %
14.11.2023 19:54 10,1 C 8,9 C 6,1 C 98 % 1000,9 hPa 0,0 l/m 0 min 2 min 0 W/m 16,1 km/h (3 Bft) 91,49 %
14.11.2023 19:56 10,1 C 8,9 C 6,1 C 98 % 1001,0 hPa 0,0 l/m 0 min 2 min 0 W/m 22,5 km/h (4 Bft) 95,74 %
14.11.2023 19:58 9,9 C 8,9 C 6,1 C 98 % 1001,1 hPa 0,2 l/m 0 min 2 min 0 W/m 29,0 km/h (5 Bft) 95,74 %
14.11.2023 20:00 9,9 C 8,9 C 6,1 C 98 % 1001,2 hPa 0,0 l/m 0 min 2 min 0 W/m 16,1 km/h (3 Bft) 51,16 %
14.11.2023 20:02 9,8 C 8,9 C 6,1 C 98 % 1001,4 hPa 0,0 l/m 0 min 2 min 0 W/m 19,3 km/h (3 Bft) 95,74 %
14.11.2023 20:04 9,8 C 8,9 C 6,1 C 98 % 1001,5 hPa 0,0 l/m 0 min 2 min 0 W/m 12,9 km/h (3 Bft) 95,56 %
14.11.2023 20:06 9,7 C 8,9 C 6,1 C 98 % 1001,6 hPa 0,0 l/m 0 min 2 min 0 W/m 12,9 km/h (3 Bft) 93,62 %
14.11.2023 20:08 9,7 C 8,9 C 6,1 C 98 % 1001,8 hPa 0,0 l/m 0 min 2 min 0 W/m 12,9 km/h (3 Bft) 94,44 %
14.11.2023 20:10 9,6 C 8,3 C 6,1 C 98 % 1001,8 hPa 0,0 l/m 0 min 2 min 0 W/m 19,3 km/h (3 Bft) 95,74 %
14.11.2023 20:12 9,6 C 8,3 C 6,1 C 98 % 1001,8 hPa 0,0 l/m 0 min 2 min 0 W/m 9,7 km/h (2 Bft) 93,48 %
14.11.2023 20:14 9,6 C 8,3 C 5,6 C 98 % 1001,9 hPa 0,2 l/m 0 min 2 min 0 W/m 12,9 km/h (3 Bft) 93,62 %
14.11.2023 20:16 9,5 C 8,3 C 5,6 C 98 % 1002,0 hPa 0,0 l/m 0 min 2 min 0 W/m 9,7 km/h (2 Bft) 95,74 %
14.11.2023 20:18 9,5 C 8,3 C 5,6 C 97 % 1002,1 hPa 0,0 l/m 0 min 0 min 0 W/m 12,9 km/h (3 Bft) 95,74 %
14.11.2023 20:20 9,5 C 8,3 C 5,6 C 97 % 1002,1 hPa 0,0 l/m 0 min 0 min 0 W/m 16,1 km/h (3 Bft) 91,49 %
14.11.2023 20:22 9,4 C 8,3 C 5,6 C 97 % 1002,2 hPa 0,0 l/m 0 min 2 min 0 W/m 9,7 km/h (2 Bft) 95,74 %
14.11.2023 20:24 9,4 C 8,3 C 5,6 C 97 % 1002,3 hPa 0,0 l/m 0 min 2 min 0 W/m 16,1 km/h (3 Bft) 97,87 %
14.11.2023 20:26 9,4 C 8,3 C 6,1 C 98 % 1002,4 hPa 0,0 l/m 0 min 2 min 0 W/m 12,9 km/h (3 Bft) 93,62 %
14.11.2023 20:28 9,4 C 8,9 C 6,1 C 98 % 1002,4 hPa 0,0 l/m 0 min 2 min 0 W/m 22,5 km/h (4 Bft) 97,87 %
14.11.2023 20:30 9,5 C 8,9 C 6,1 C 98 % 1002,5 hPa 0,2 l/m 0 min 2 min 0 W/m 12,9 km/h (3 Bft) 97,87 %
14.11.2023 20:32 9,5 C 8,9 C 6,1 C 98 % 1002,6 hPa 0,0 l/m 0 min 0 min 0 W/m 19,3 km/h (3 Bft) 95,65 %
14.11.2023 20:34 9,5 C 8,9 C 6,1 C 98 % 1002,7 hPa 0,0 l/m 0 min 0 min 0 W/m 16,1 km/h (3 Bft) 97,87 %
14.11.2023 20:36 9,5 C 8,9 C 6,1 C 98 % 1002,7 hPa 0,0 l/m 0 min 0 min 0 W/m 12,9 km/h (3 Bft) 97,87 %
14.11.2023 20:38 9,5 C 8,9 C 6,1 C 98 % 1002,7 hPa 0,0 l/m 0 min 0 min 0 W/m 12,9 km/h (3 Bft) 97,87 %
14.11.2023 20:40 9,5 C 8,9 C 6,1 C 98 % 1002,8 hPa 0,0 l/m 0 min 2 min 0 W/m 16,1 km/h (3 Bft) 95,74 %
14.11.2023 20:42 9,5 C 8,9 C 6,1 C 98 % 1002,9 hPa 0,0 l/m 0 min 2 min 0 W/m 16,1 km/h (3 Bft) 95,74 %
14.11.2023 20:44 9,6 C 8,9 C 6,1 C 98 % 1003,0 hPa 0,0 l/m 0 min 2 min 0 W/m 22,5 km/h (4 Bft) 97,87 %
14.11.2023 20:46 9,6 C 8,9 C 6,1 C 98 % 1003,1 hPa 0,0 l/m 0 min 2 min 0 W/m 25,7 km/h (4 Bft) 95,74 %
14.11.2023 20:48 9,6 C 8,9 C 6,1 C 98 % 1003,2 hPa 0,0 l/m 0 min 2 min 0 W/m 16,1 km/h (3 Bft) 97,44 %
14.11.2023 20:50 9,5 C 8,9 C 6,1 C 98 % 1003,1 hPa 0,2 l/m 0 min 2 min 0 W/m 25,7 km/h (4 Bft) 95,83 %
14.11.2023 20:52 9,5 C 8,9 C 6,1 C 98 % 1003,2 hPa 0,0 l/m 0 min 2 min 0 W/m 19,3 km/h (3 Bft) 95,65 %
14.11.2023 20:56 9,5 C 8,9 C 6,1 C 98 % 1003,4 hPa 0,0 l/m 0 min 4 min 0 W/m 19,3 km/h (3 Bft) 97,94 %
14.11.2023 21:00 9,4 C 8,9 C 6,1 C 98 % 1003,5 hPa 0,0 l/m 0 min 4 min 0 W/m 16,1 km/h (3 Bft) 94,79 %
14.11.2023 21:02 9,4 C 8,9 C 6,1 C 98 % 1003,6 hPa 0,0 l/m 0 min 2 min 0 W/m 16,1 km/h (3 Bft) 100,00 %
14.11.2023 21:04 9,4 C 8,9 C 6,1 C 98 % 1003,6 hPa 0,0 l/m 0 min 2 min 0 W/m 12,9 km/h (3 Bft) 96,00 %
14.11.2023 21:06 9,4 C 8,9 C 6,1 C 98 % 1003,7 hPa 0,2 l/m 0 min 2 min 0 W/m 19,3 km/h (3 Bft) 95,83 %
14.11.2023 21:08 9,4 C 8,9 C 6,1 C 98 % 1003,7 hPa 0,0 l/m 0 min 2 min 0 W/m 19,3 km/h (3 Bft) 97,87 %
14.11.2023 21:10 9,4 C 8,9 C 6,1 C 98 % 1003,7 hPa 0,0 l/m 0 min 2 min 0 W/m 22,5 km/h (4 Bft) 97,92 %
14.11.2023 21:12 9,4 C 8,9 C 6,1 C 98 % 1003,9 hPa 0,0 l/m 0 min 2 min 0 W/m 12,9 km/h (3 Bft) 97,87 %
14.11.2023 21:14 9,4 C 8,9 C 6,1 C 98 % 1003,9 hPa 0,2 l/m 0 min 2 min 0 W/m 12,9 km/h (3 Bft) 97,73 %
14.11.2023 21:16 9,4 C 8,9 C 6,1 C 98 % 1003,9 hPa 0,0 l/m 0 min 2 min 0 W/m 16,1 km/h (3 Bft) 98,00 %
14.11.2023 21:18 9,4 C 8,9 C 6,1 C 98 % 1003,9 hPa 0,0 l/m 0 min 2 min 0 W/m 22,5 km/h (4 Bft) 95,74 %
14.11.2023 21:20 9,4 C 8,9 C 6,1 C 98 % 1004,0 hPa 0,0 l/m 0 min 2 min 0 W/m 19,3 km/h (3 Bft) 95,74 %
14.11.2023 21:22 9,4 C 8,9 C 6,1 C 98 % 1004,0 hPa 0,0 l/m 0 min 2 min 0 W/m 16,1 km/h (3 Bft) 100,00 %
14.11.2023 21:24 9,4 C 8,9 C 6,1 C 98 % 1004,1 hPa 0,2 l/m 0 min 2 min 0 W/m 16,1 km/h (3 Bft) 100,00 %
14.11.2023 21:26 9,4 C 8,9 C 6,1 C 98 % 1004,1 hPa 0,0 l/m 0 min 2 min 0 W/m 19,3 km/h (3 Bft) 100,00 %
14.11.2023 21:28 9,4 C 8,9 C 6,1 C 98 % 1004,2 hPa 0,0 l/m 0 min 2 min 0 W/m 22,5 km/h (4 Bft) 100,00 %
14.11.2023 21:30 9,4 C 8,9 C 6,1 C 98 % 1004,3 hPa 0,0 l/m 0 min 2 min 0 W/m 35,4 km/h (5 Bft) 100,00 %
14.11.2023 21:32 9,4 C 8,9 C 6,1 C 98 % 1004,3 hPa 0,0 l/m 0 min 2 min 0 W/m 12,9 km/h (3 Bft) 100,00 %
14.11.2023 21:34 9,4 C 8,9 C 6,1 C 98 % 1004,3 hPa 0,2 l/m 0 min 2 min 0 W/m 19,3 km/h (3 Bft) 100,00 %
14.11.2023 21:36 9,4 C 8,9 C 6,1 C 98 % 1004,4 hPa 0,0 l/m 0 min 2 min 0 W/m 12,9 km/h (3 Bft) 100,00 %
14.11.2023 21:38 9,4 C 8,9 C 6,1 C 98 % 1004,4 hPa 0,0 l/m 0 min 2 min 0 W/m 9,7 km/h (2 Bft) 59,57 %
14.11.2023 21:40 9,4 C 8,9 C 6,1 C 98 % 1004,4 hPa 0,0 l/m 0 min 2 min 0 W/m 16,1 km/h (3 Bft) 97,87 %
14.11.2023 21:42 9,4 C 8,9 C 6,1 C 98 % 1004,4 hPa 0,0 l/m 0 min 0 min 0 W/m 29,0 km/h (5 Bft) 95,74 %
14.11.2023 21:44 9,4 C 8,9 C 6,1 C 98 % 1004,5 hPa 0,0 l/m 0 min 0 min 0 W/m 16,1 km/h (3 Bft) 97,87 %
14.11.2023 21:46 9,4 C 8,9 C 6,1 C 98 % 1004,5 hPa 0,0 l/m 0 min 2 min 0 W/m 19,3 km/h (3 Bft) 97,92 %
14.11.2023 21:48 9,4 C 8,9 C 6,1 C 98 % 1004,5 hPa 0,0 l/m 0 min 2 min 0 W/m 19,3 km/h (3 Bft) 97,14 %
14.11.2023 21:50 9,4 C 8,9 C 6,1 C 98 % 1004,5 hPa 0,2 l/m 0 min 2 min 0 W/m 19,3 km/h (3 Bft) 96,23 %
14.11.2023 21:54 9,4 C 8,9 C 6,1 C 98 % 1004,7 hPa 0,0 l/m 0 min 4 min 0 W/m 19,3 km/h (3 Bft) 97,83 %
14.11.2023 21:56 9,4 C 8,9 C 6,1 C 98 % 1004,7 hPa 0,2 l/m 0 min 2 min 0 W/m 19,3 km/h (3 Bft) 98,00 %
14.11.2023 21:58 9,4 C 8,9 C 6,1 C 98 % 1004,8 hPa 0,0 l/m 0 min 2 min 0 W/m 19,3 km/h (3 Bft) 96,08 %
14.11.2023 22:00 9,4 C 8,9 C 6,1 C 98 % 1004,8 hPa 0,2 l/m 0 min 2 min 0 W/m 12,9 km/h (3 Bft) 95,74 %
14.11.2023 22:04 9,4 C 8,3 C 6,1 C 98 % 1004,9 hPa 0,0 l/m 0 min 4 min 0 W/m 16,1 km/h (3 Bft) 96,59 %
14.11.2023 22:06 9,4 C 8,9 C 6,1 C 98 % 1004,9 hPa 0,2 l/m 0 min 2 min 0 W/m 12,9 km/h (3 Bft) 97,87 %
14.11.2023 22:12 9,4 C 8,9 C 6,1 C 98 % 1005,0 hPa 0,0 l/m 0 min 5 min 0 W/m 16,1 km/h (3 Bft) 97,50 %
14.11.2023 22:14 9,3 C 8,9 C 6,1 C 98 % 1005,1 hPa 0,2 l/m 0 min 2 min 0 W/m 19,3 km/h (3 Bft) 95,92 %
14.11.2023 22:16 9,3 C 8,3 C 6,1 C 98 % 1005,1 hPa 0,0 l/m 0 min 2 min 0 W/m 12,9 km/h (3 Bft) 100,00 %
14.11.2023 22:18 9,3 C 8,3 C 6,1 C 98 % 1005,1 hPa 0,0 l/m 0 min 2 min 0 W/m 19,3 km/h (3 Bft) 100,00 %
14.11.2023 22:20 9,4 C 8,9 C 6,1 C 98 % 1005,2 hPa 0,2 l/m 0 min 2 min 0 W/m 19,3 km/h (3 Bft) 95,74 %
14.11.2023 22:22 9,4 C 8,9 C 6,1 C 98 % 1005,2 hPa 0,0 l/m 0 min 2 min 0 W/m 16,1 km/h (3 Bft) 100,00 %
14.11.2023 22:24 9,4 C 8,9 C 6,1 C 98 % 1005,2 hPa 0,0 l/m 0 min 2 min 0 W/m 6,4 km/h (2 Bft) 100,00 %
14.11.2023 22:26 9,4 C 8,9 C 6,1 C 98 % 1005,2 hPa 0,2 l/m 0 min 2 min 0 W/m 12,9 km/h (3 Bft) 97,87 %
14.11.2023 22:28 9,4 C 8,9 C 6,1 C 98 % 1005,3 hPa 0,0 l/m 0 min 2 min 0 W/m 9,7 km/h (2 Bft) 100,00 %
14.11.2023 22:30 9,4 C 8,9 C 6,1 C 98 % 1005,3 hPa 0,0 l/m 0 min 2 min 0 W/m 12,9 km/h (3 Bft) 100,00 %
14.11.2023 22:32 9,4 C 8,9 C 6,1 C 98 % 1005,5 hPa 0,0 l/m 0 min 2 min 0 W/m 12,9 km/h (3 Bft) 97,83 %
14.11.2023 22:34 9,4 C 8,9 C 6,1 C 98 % 1005,6 hPa 0,0 l/m 0 min 2 min 0 W/m 12,9 km/h (3 Bft) 100,00 %
14.11.2023 22:36 9,4 C 8,9 C 6,1 C 98 % 1005,6 hPa 0,2 l/m 0 min 2 min 0 W/m 9,7 km/h (2 Bft) 100,00 %
14.11.2023 22:38 9,4 C 8,9 C 6,1 C 98 % 1005,6 hPa 0,0 l/m 0 min 2 min 0 W/m 16,1 km/h (3 Bft) 97,87 %
14.11.2023 22:40 9,4 C 8,9 C 6,1 C 98 % 1005,6 hPa 0,0 l/m 0 min 2 min 0 W/m 16,1 km/h (3 Bft) 100,00 %
14.11.2023 22:42 9,4 C 8,9 C 6,1 C 98 % 1005,7 hPa 0,2 l/m 0 min 2 min 0 W/m 12,9 km/h (3 Bft) 100,00 %
14.11.2023 22:44 9,4 C 8,9 C 6,1 C 98 % 1005,7 hPa 0,0 l/m 0 min 2 min 0 W/m 9,7 km/h (2 Bft) 97,87 %
14.11.2023 22:46 9,4 C 8,9 C 6,1 C 98 % 1005,8 hPa 0,0 l/m 0 min 2 min 0 W/m 12,9 km/h (3 Bft) 100,00 %
14.11.2023 22:48 9,4 C 8,9 C 6,1 C 98 % 1005,9 hPa 0,0 l/m 0 min 0 min 0 W/m 12,9 km/h (3 Bft) 97,87 %
14.11.2023 22:50 9,4 C 8,9 C 6,1 C 98 % 1005,9 hPa 0,0 l/m 0 min 0 min 0 W/m 9,7 km/h (2 Bft) 97,87 %
14.11.2023 22:52 9,4 C 8,9 C 6,1 C 98 % 1005,9 hPa 0,2 l/m 0 min 2 min 0 W/m 16,1 km/h (3 Bft) 100,00 %
14.11.2023 22:54 9,4 C 8,9 C 6,1 C 98 % 1005,9 hPa 0,0 l/m 0 min 2 min 0 W/m 12,9 km/h (3 Bft) 97,83 %
14.11.2023 22:56 9,4 C 8,9 C 6,1 C 98 % 1006,0 hPa 0,2 l/m 0 min 2 min 0 W/m 16,1 km/h (3 Bft) 95,74 %
14.11.2023 22:58 9,4 C 8,9 C 6,1 C 98 % 1006,0 hPa 0,0 l/m 0 min 2 min 0 W/m 12,9 km/h (3 Bft) 97,87 %
14.11.2023 23:00 9,4 C 8,9 C 6,1 C 98 % 1006,0 hPa 0,2 l/m 0 min 2 min 0 W/m 19,3 km/h (3 Bft) 93,75 %
14.11.2023 23:02 9,4 C 8,9 C 6,1 C 98 % 1006,0 hPa 0,0 l/m 0 min 2 min 0 W/m 9,7 km/h (2 Bft) 95,74 %
14.11.2023 23:04 9,4 C 8,9 C 6,1 C 98 % 1006,1 hPa 0,0 l/m 0 min 2 min 0 W/m 9,7 km/h (2 Bft) 95,56 %
14.11.2023 23:08 9,4 C 8,9 C 6,1 C 98 % 1006,3 hPa 0,0 l/m 0 min 0 min 0 W/m 19,3 km/h (3 Bft) 96,81 %
14.11.2023 23:09 9,4 C 8,9 C 6,1 C 98 % 1006,2 hPa 0,0 l/m 0 min 0 min 0 W/m 12,9 km/h (3 Bft) 95,65 %
14.11.2023 23:10 9,4 C 8,9 C 6,1 C 98 % 1006,2 hPa 0,0 l/m 0 min 0 min 0 W/m 19,3 km/h (3 Bft) 98,25 %
14.11.2023 23:14 9,6 C 8,9 C 6,1 C 98 % 1006,3 hPa 0,0 l/m 0 min 4 min 0 W/m 16,1 km/h (3 Bft) 95,71 %
14.11.2023 23:16 9,6 C 8,9 C 6,1 C 98 % 1006,4 hPa 0,0 l/m 0 min 0 min 0 W/m 12,9 km/h (3 Bft) 97,83 %
14.11.2023 23:18 9,6 C 8,9 C 6,1 C 98 % 1006,4 hPa 0,0 l/m 0 min 0 min 0 W/m 12,9 km/h (3 Bft) 93,62 %
14.11.2023 23:20 9,6 C 8,9 C 6,1 C 98 % 1006,4 hPa 0,0 l/m 0 min 2 min 0 W/m 16,1 km/h (3 Bft) 95,74 %
14.11.2023 23:22 9,6 C 8,9 C 6,1 C 98 % 1006,5 hPa 0,2 l/m 0 min 2 min 0 W/m 19,3 km/h (3 Bft) 95,74 %
14.11.2023 23:24 9,6 C 8,9 C 6,1 C 98 % 1006,6 hPa 0,0 l/m 0 min 2 min 0 W/m 12,9 km/h (3 Bft) 95,74 %
14.11.2023 23:26 9,6 C 8,9 C 6,1 C 98 % 1006,6 hPa 0,0 l/m 0 min 2 min 0 W/m 19,3 km/h (3 Bft) 97,87 %
14.11.2023 23:28 9,6 C 8,9 C 6,1 C 98 % 1006,6 hPa 0,2 l/m 0 min 2 min 0 W/m 9,7 km/h (2 Bft) 95,74 %
14.11.2023 23:30 9,6 C 8,9 C 6,1 C 98 % 1006,7 hPa 0,0 l/m 0 min 2 min 0 W/m 12,9 km/h (3 Bft) 95,74 %
14.11.2023 23:32 9,6 C 8,9 C 6,1 C 98 % 1006,8 hPa 0,0 l/m 0 min 0 min 0 W/m 19,3 km/h (3 Bft) 95,74 %
14.11.2023 23:34 9,6 C 8,9 C 6,1 C 98 % 1006,8 hPa 0,0 l/m 0 min 2 min 0 W/m 9,7 km/h (2 Bft) 91,30 %
14.11.2023 23:36 9,6 C 8,9 C 6,1 C 98 % 1006,8 hPa 0,0 l/m 0 min 2 min 0 W/m 9,7 km/h (2 Bft) 91,49 %
14.11.2023 23:38 9,6 C 8,9 C 6,1 C 98 % 1006,9 hPa 0,0 l/m 0 min 2 min 0 W/m 16,1 km/h (3 Bft) 93,62 %
14.11.2023 23:40 9,6 C 8,9 C 6,1 C 98 % 1006,9 hPa 0,0 l/m 0 min 2 min 0 W/m 16,1 km/h (3 Bft) 93,62 %
14.11.2023 23:42 9,6 C 8,9 C 6,1 C 98 % 1006,9 hPa 0,0 l/m 0 min 0 min 0 W/m 6,4 km/h (2 Bft) 91,49 %
14.11.2023 23:44 9,7 C 8,9 C 6,1 C 98 % 1006,9 hPa 0,0 l/m 0 min 0 min 0 W/m 12,9 km/h (3 Bft) 97,14 %
14.11.2023 23:46 9,6 C 8,9 C 6,1 C 98 % 1007,0 hPa 0,0 l/m 0 min 0 min 0 W/m 12,9 km/h (3 Bft) 94,92 %
14.11.2023 23:48 9,6 C 8,9 C 6,1 C 98 % 1007,1 hPa 0,0 l/m 0 min 0 min 0 W/m 12,9 km/h (3 Bft) 97,14 %
14.11.2023 23:50 9,7 C 8,9 C 6,1 C 98 % 1007,1 hPa 0,0 l/m 0 min 0 min 0 W/m 6,4 km/h (2 Bft) 93,62 %
14.11.2023 23:52 9,7 C 8,9 C 6,1 C 98 % 1007,2 hPa 0,0 l/m 0 min 2 min 0 W/m 12,9 km/h (3 Bft) 93,62 %
14.11.2023 23:54 9,7 C 8,9 C 6,1 C 98 % 1007,2 hPa 0,2 l/m 0 min 2 min 0 W/m 12,9 km/h (3 Bft) 96,00 %
14.11.2023 23:56 9,7 C 8,9 C 6,1 C 98 % 1007,3 hPa 0,2 l/m 0 min 2 min 0 W/m 19,3 km/h (3 Bft) 95,74 %
14.11.2023 23:58 9,7 C 8,9 C 6,1 C 98 % 1007,3 hPa 0,0 l/m 0 min 2 min 0 W/m 16,1 km/h (3 Bft) 95,74 %
_ Min-Zeit 22:14 20:10 20:14 00:40 19:28 - - - - 17:22 20:00
Minimum _ 9,3 C 8,3 C 5,6 C 88 % 1000,1 hPa - - - - 0,0 km/h (0 Bft) 51,16 %
_ Max-Zeit 11:38 13:18 11:04 18:30 23:56 17:26 13:14 04:10 13:20 09:12 01:08
Maximum _ 12,4 C 12,8 C 8,3 C 98 % 1007,3 hPa 0,4 l/m 4 min 5 min 274 W/m 57,9 km/h
S (7 Bft)
100,00 %
Durchschnitt _ 10,9 C 10,3 C 6,9 C 92 % 1004,0 hPa #16,4 l/m #40 min. #8:42 h 71 W/m 20,2 km/h (4 Bft) 97,03 %
© 2023 W. Hausmann